Time,TemperatureF,DewpointF,PressureIn,WindDirection,WindDirectionDegrees,WindSpeedMPH,WindSpeedGustMPH,Humidity,HourlyPrecipIn,Conditions,Clouds,dailyrainin,SoftwareType,DateUTC
2013-05-20 00:02:00,48.9,41.4,30.36,SE,135,0.0,0.9,75,0.00,,BKN039,0.00,VWS V14.00,2013-05-20 07:02:00,
2013-05-20 00:03:00,48.9,41.4,30.36,NNW,338,0.0,0.9,75,0.00,,BKN039,0.00,VWS V14.00,2013-05-20 07:03:00,
2013-05-20 00:07:00,48.9,41.4,30.36,SSW,202,0.0,0.0,75,0.00,,BKN039,0.00,VWS V14.00,2013-05-20 07:07:00,
2013-05-20 00:08:00,48.9,41.4,30.36,SSW,202,0.0,0.0,75,0.00,,BKN039,0.00,VWS V14.00,2013-05-20 07:08:00,
2013-05-20 00:12:00,48.7,41.2,30.36,WSW,248,0.0,0.0,75,0.00,,BKN039,0.00,VWS V14.00,2013-05-20 07:12:00,
2013-05-20 00:13:00,48.7,41.2,30.36,WSW,248,0.0,0.0,75,0.00,,BKN039,0.00,VWS V14.00,2013-05-20 07:13:00,
2013-05-20 00:17:00,48.7,41.5,30.36,NNW,338,0.0,2.0,76,0.00,,BKN039,0.00,VWS V14.00,2013-05-20 07:17:00,
2013-05-20 00:18:00,48.7,41.5,30.36,WNW,292,0.0,2.0,76,0.00,,BKN039,0.00,VWS V14.00,2013-05-20 07:18:00,
2013-05-20 00:23:00,48.6,41.3,30.36,WSW,248,0.0,2.0,76,0.00,,BKN039,0.00,VWS V14.00,2013-05-20 07:23:00,
2013-05-20 00:28:00,48.6,41.3,30.36,WSW,248,0.0,0.9,76,0.00,,BKN039,0.00,VWS V14.00,2013-05-20 07:28:00,
2013-05-20 00:33:00,48.6,41.3,30.36,WSW,248,0.0,2.0,76,0.00,,BKN035,0.00,VWS V14.00,2013-05-20 07:33:00,
2013-05-20 00:38:00,48.6,41.3,30.36,West,270,0.0,2.0,76,0.00,,BKN035,0.00,VWS V14.00,2013-05-20 07:38:00,
2013-05-20 00:43:00,48.4,41.2,30.36,WSW,248,0.0,0.0,76,0.00,,BKN035,0.00,VWS V14.00,2013-05-20 07:43:00,
2013-05-20 00:48:00,48.4,41.5,30.36,WSW,248,0.0,0.0,77,0.00,,BKN035,0.00,VWS V14.00,2013-05-20 07:48:00,
2013-05-20 00:49:00,48.4,41.5,30.36,SSW,202,0.0,0.0,77,0.00,,BKN035,0.00,VWS V14.00,2013-05-20 07:49:00,
2013-05-20 00:53:00,48.2,41.3,30.36,WNW,292,1.3,1.3,77,0.00,,OVC035,0.00,VWS V14.00,2013-05-20 07:53:00,
2013-05-20 00:54:00,48.2,41.3,30.36,WNW,292,1.3,1.3,77,0.00,,OVC035,0.00,VWS V14.00,2013-05-20 07:54:00,
2013-05-20 00:58:00,48.2,41.3,30.36,WSW,248,0.0,1.3,77,0.00,,OVC035,0.00,VWS V14.00,2013-05-20 07:58:00,
2013-05-20 00:59:00,48.2,41.3,30.36,WSW,248,0.0,1.3,77,0.00,,OVC035,0.00,VWS V14.00,2013-05-20 07:59:00,
2013-05-20 01:03:00,48.2,41.3,30.36,WSW,248,0.0,1.3,77,0.00,,OVC035,0.00,VWS V14.00,2013-05-20 08:03:00,
2013-05-20 01:04:00,48.2,41.3,30.36,SE,135,0.0,1.3,77,0.00,,OVC035,0.00,VWS V14.00,2013-05-20 08:04:00,
2013-05-20 01:08:00,48.2,41.7,30.36,West,270,0.0,0.0,78,0.00,,OVC035,0.00,VWS V14.00,2013-05-20 08:08:00,
2013-05-20 01:09:00,48.2,41.7,30.36,West,270,0.0,0.0,78,0.00,,OVC035,0.00,VWS V14.00,2013-05-20 08:09:00,
2013-05-20 01:13:00,48.2,41.7,30.36,SSW,202,0.0,0.0,78,0.00,,OVC035,0.00,VWS V14.00,2013-05-20 08:13:00,
2013-05-20 01:14:00,48.2,41.7,30.36,WSW,248,0.0,0.0,78,0.00,,OVC035,0.00,VWS V14.00,2013-05-20 08:14:00,
2013-05-20 01:18:00,48.2,41.7,30.36,NNW,338,0.0,0.0,78,0.00,,OVC035,0.00,VWS V14.00,2013-05-20 08:18:00,
2013-05-20 01:19:00,48.2,41.7,30.36,NNW,338,0.0,0.0,78,0.00,,OVC035,0.00,VWS V14.00,2013-05-20 08:19:00,
2013-05-20 01:23:00,48.0,41.5,30.36,SSW,202,0.0,0.9,78,0.00,,OVC035,0.00,VWS V14.00,2013-05-20 08:23:00,
2013-05-20 01:24:00,48.0,41.5,30.36,SSW,202,0.0,0.9,78,0.00,,OVC035,0.00,VWS V14.00,2013-05-20 08:24:00,
2013-05-20 01:28:00,48.0,41.5,30.36,SSW,202,0.9,0.9,78,0.00,,OVC035,0.00,VWS V14.00,2013-05-20 08:28:00,
2013-05-20 01:29:00,48.0,41.5,30.36,SSW,202,0.9,0.9,78,0.00,,OVC035,0.00,VWS V14.00,2013-05-20 08:29:00,
2013-05-20 01:33:00,48.2,41.7,30.36,SSW,202,0.0,0.9,78,0.00,,OVC022,0.00,VWS V14.00,2013-05-20 08:33:00,
2013-05-20 01:34:00,48.2,41.7,30.36,SSW,202,0.0,0.9,78,0.00,,OVC022,0.00,VWS V14.00,2013-05-20 08:34:00,
2013-05-20 01:39:00,48.2,42.0,30.36,SSW,202,0.0,0.9,79,0.00,,OVC022,0.00,VWS V14.00,2013-05-20 08:39:00,
2013-05-20 01:44:00,48.4,42.2,30.36,WSW,248,0.0,2.0,79,0.00,,OVC022,0.00,VWS V14.00,2013-05-20 08:44:00,
2013-05-20 01:49:00,48.4,42.2,30.36,WSW,248,0.0,2.0,79,0.00,,OVC022,0.00,VWS V14.00,2013-05-20 08:49:00,
2013-05-20 01:50:00,48.4,42.2,30.36,SSW,202,1.1,2.0,79,0.00,,OVC022,0.00,VWS V14.00,2013-05-20 08:50:00,
2013-05-20 01:54:00,48.4,42.2,30.36,West,270,2.5,2.5,79,0.00,,OVC035,0.00,VWS V14.00,2013-05-20 08:54:00,
2013-05-20 01:55:00,48.4,42.2,30.36,WNW,292,2.0,2.5,79,0.00,,OVC035,0.00,VWS V14.00,2013-05-20 08:55:00,
2013-05-20 01:59:00,48.6,42.3,30.36,WSW,248,0.0,2.5,79,0.00,,OVC022,0.00,VWS V14.00,2013-05-20 08:59:00,
2013-05-20 02:00:00,48.6,42.3,30.36,WSW,248,2.0,2.5,79,0.00,,OVC022,0.00,VWS V14.00,2013-05-20 09:00:00,
2013-05-20 02:04:00,48.6,42.3,30.36,WNW,292,0.0,2.5,79,0.00,,OVC022,0.00,VWS V14.00,2013-05-20 09:04:00,
2013-05-20 02:05:00,48.6,42.3,30.36,WSW,248,0.0,2.5,79,0.00,,OVC022,0.00,VWS V14.00,2013-05-20 09:05:00,
2013-05-20 02:09:00,48.7,42.5,30.36,West,270,0.0,2.5,79,0.00,,OVC022,0.00,VWS V14.00,2013-05-20 09:09:00,
2013-05-20 02:10:00,48.6,42.3,30.36,West,270,0.9,2.5,79,0.00,,OVC022,0.00,VWS V14.00,2013-05-20 09:10:00,
2013-05-20 02:14:00,48.7,42.5,30.36,West,270,0.0,2.0,79,0.00,,OVC022,0.00,VWS V14.00,2013-05-20 09:14:00,
2013-05-20 02:15:00,48.7,42.5,30.36,WSW,248,0.0,2.0,79,0.00,,OVC022,0.00,VWS V14.00,2013-05-20 09:15:00,
2013-05-20 02:19:00,48.7,42.5,30.36,East,90,0.0,0.9,79,0.00,,OVC022,0.00,VWS V14.00,2013-05-20 09:19:00,
2013-05-20 02:20:00,48.7,42.5,30.36,East,90,0.0,0.9,79,0.00,,OVC022,0.00,VWS V14.00,2013-05-20 09:20:00,
2013-05-20 02:24:00,48.7,42.5,30.36,WSW,248,0.0,1.1,79,0.00,,OVC022,0.00,VWS V14.00,2013-05-20 09:24:00,
2013-05-20 02:25:00,48.7,42.5,30.36,West,270,0.0,1.1,79,0.00,,OVC022,0.00,VWS V14.00,2013-05-20 09:25:00,
2013-05-20 02:29:00,48.7,42.5,30.36,WNW,292,0.0,1.1,79,0.00,,OVC022,0.00,VWS V14.00,2013-05-20 09:29:00,
2013-05-20 02:30:00,48.7,42.5,30.36,WNW,292,0.0,1.1,79,0.00,,OVC022,0.00,VWS V14.00,2013-05-20 09:30:00,
2013-05-20 02:34:00,48.7,42.5,30.36,West,270,1.1,1.1,79,0.00,,OVC020,0.00,VWS V14.00,2013-05-20 09:34:00,
2013-05-20 02:35:00,48.7,42.5,30.36,West,270,1.1,1.1,79,0.00,,OVC020,0.00,VWS V14.00,2013-05-20 09:35:00,
2013-05-20 02:39:00,48.7,42.5,30.36,West,270,1.3,1.3,79,0.00,,OVC020,0.00,VWS V14.00,2013-05-20 09:39:00,
2013-05-20 02:40:00,48.7,42.5,30.36,WSW,248,0.0,1.3,79,0.00,,OVC020,0.00,VWS V14.00,2013-05-20 09:40:00,
2013-05-20 02:44:00,48.7,42.5,30.36,SSW,202,0.0,2.0,79,0.00,,OVC020,0.00,VWS V14.00,2013-05-20 09:44:00,
2013-05-20 02:45:00,48.7,42.5,30.36,SSW,202,0.0,2.0,79,0.00,,OVC020,0.00,VWS V14.00,2013-05-20 09:45:00,
2013-05-20 02:49:00,48.7,42.5,30.36,SSW,202,0.0,2.0,79,0.00,,OVC018,0.00,VWS V14.00,2013-05-20 09:49:00,
2013-05-20 02:50:00,48.7,42.5,30.36,WSW,248,0.0,2.0,79,0.00,,OVC018,0.00,VWS V14.00,2013-05-20 09:50:00,
2013-05-20 02:55:00,48.7,42.5,30.36,WSW,248,0.0,2.0,79,0.00,,OVC018,0.00,VWS V14.00,2013-05-20 09:55:00,
2013-05-20 03:00:00,48.7,42.5,30.36,WSW,248,0.0,2.2,79,0.00,,OVC018,0.00,VWS V14.00,2013-05-20 10:00:00,
2013-05-20 03:05:00,48.7,42.5,30.36,SSW,202,0.0,2.2,79,0.00,,OVC018,0.00,VWS V14.00,2013-05-20 10:05:00,
2013-05-20 03:10:00,48.7,42.5,30.33,WSW,248,0.0,2.2,79,0.00,,OVC018,0.00,VWS V14.00,2013-05-20 10:10:00,
2013-05-20 03:15:00,48.7,42.5,30.33,WNW,292,0.0,2.2,79,0.00,,OVC018,0.00,VWS V14.00,2013-05-20 10:15:00,
2013-05-20 03:20:00,48.7,42.5,30.33,WSW,248,1.1,1.6,79,0.00,,OVC018,0.00,VWS V14.00,2013-05-20 10:20:00,
2013-05-20 03:25:00,48.7,42.5,30.33,SSW,202,0.0,1.1,79,0.00,,OVC018,0.00,VWS V14.00,2013-05-20 10:25:00,
2013-05-20 03:26:00,48.7,42.5,30.33,WSW,248,0.0,1.1,79,0.00,,OVC018,0.00,VWS V14.00,2013-05-20 10:26:00,
2013-05-20 03:30:00,48.7,42.5,30.33,West,270,0.0,1.1,79,0.00,,OVC018,0.00,VWS V14.00,2013-05-20 10:30:00,
2013-05-20 03:31:00,48.7,42.5,30.33,West,270,0.0,1.1,79,0.00,,OVC018,0.00,VWS V14.00,2013-05-20 10:31:00,
2013-05-20 03:35:00,48.7,42.5,30.33,SSW,202,0.0,1.1,79,0.00,,OVC018,0.00,VWS V14.00,2013-05-20 10:35:00,
2013-05-20 03:36:00,48.7,42.5,30.33,WSW,248,0.0,1.1,79,0.00,,OVC018,0.00,VWS V14.00,2013-05-20 10:36:00,
2013-05-20 03:40:00,48.7,42.5,30.33,WNW,292,0.0,0.0,79,0.00,,OVC018,0.00,VWS V14.00,2013-05-20 10:40:00,
2013-05-20 03:41:00,48.7,42.5,30.33,WNW,292,0.0,0.0,79,0.00,,OVC018,0.00,VWS V14.00,2013-05-20 10:41:00,
2013-05-20 03:45:00,48.7,42.5,30.33,NNW,338,0.0,0.0,79,0.00,,OVC018,0.00,VWS V14.00,2013-05-20 10:45:00,
2013-05-20 03:46:00,48.7,42.5,30.33,WSW,248,0.0,0.0,79,0.00,,OVC018,0.00,VWS V14.00,2013-05-20 10:46:00,
2013-05-20 03:50:00,48.7,42.5,30.33,WNW,292,0.0,0.0,79,0.00,,OVC018,0.00,VWS V14.00,2013-05-20 10:50:00,
2013-05-20 03:51:00,48.7,42.5,30.33,WSW,248,0.0,0.0,79,0.00,,OVC018,0.00,VWS V14.00,2013-05-20 10:51:00,
2013-05-20 03:55:00,48.7,42.5,30.33,WSW,248,0.0,0.0,79,0.00,,OVC018,0.00,VWS V14.00,2013-05-20 10:55:00,
2013-05-20 03:56:00,48.7,42.5,30.33,WSW,248,0.0,0.0,79,0.00,,OVC018,0.00,VWS V14.00,2013-05-20 10:56:00,
2013-05-20 04:00:00,48.7,42.5,30.33,West,270,0.0,0.0,79,0.00,,OVC018,0.00,VWS V14.00,2013-05-20 11:00:00,
2013-05-20 04:01:00,48.7,42.5,30.33,WSW,248,0.0,0.0,79,0.00,,OVC018,0.00,VWS V14.00,2013-05-20 11:01:00,
2013-05-20 04:05:00,48.7,42.5,30.33,WNW,292,0.0,0.0,79,0.00,,OVC018,0.00,VWS V14.00,2013-05-20 11:05:00,
2013-05-20 04:06:00,48.7,42.5,30.33,WNW,292,0.0,0.0,79,0.00,,OVC018,0.00,VWS V14.00,2013-05-20 11:06:00,
2013-05-20 04:07:00,48.7,42.5,30.33,WSW,248,0.9,0.9,79,0.00,,OVC018,0.00,VWS V14.00,2013-05-20 11:07:00,
2013-05-20 04:10:00,48.7,42.5,30.33,WSW,248,0.0,1.3,79,0.00,,OVC018,0.00,VWS V14.00,2013-05-20 11:10:00,
2013-05-20 04:11:00,48.7,42.5,30.33,West,270,0.0,1.3,79,0.00,,OVC018,0.00,VWS V14.00,2013-05-20 11:11:00,
2013-05-20 04:12:00,48.7,42.5,30.33,West,270,0.0,1.3,79,0.00,,OVC018,0.00,VWS V14.00,2013-05-20 11:12:00,
2013-05-20 04:16:00,48.7,42.5,30.33,WSW,248,0.0,1.3,79,0.00,,OVC018,0.00,VWS V14.00,2013-05-20 11:16:00,
2013-05-20 04:17:00,48.7,42.5,30.33,WSW,248,0.0,1.3,79,0.00,,OVC018,0.00,VWS V14.00,2013-05-20 11:17:00,
2013-05-20 04:21:00,48.7,42.5,30.33,WNW,292,0.0,2.0,79,0.00,,OVC018,0.00,VWS V14.00,2013-05-20 11:21:00,
2013-05-20 04:22:00,48.7,42.5,30.33,SW,225,0.0,2.0,79,0.00,,OVC018,0.00,VWS V14.00,2013-05-20 11:22:00,
2013-05-20 04:26:00,48.7,42.5,30.33,WSW,248,0.0,2.0,79,0.00,,OVC018,0.00,VWS V14.00,2013-05-20 11:26:00,
2013-05-20 04:27:00,48.7,42.5,30.33,WSW,248,0.0,2.0,79,0.00,,OVC018,0.00,VWS V14.00,2013-05-20 11:27:00,
2013-05-20 04:31:00,48.7,42.5,30.33,WSW,248,0.0,2.0,79,0.00,,OVC018,0.00,VWS V14.00,2013-05-20 11:31:00,
2013-05-20 04:32:00,48.7,42.5,30.33,West,270,0.0,2.0,79,0.00,,OVC018,0.00,VWS V14.00,2013-05-20 11:32:00,
2013-05-20 04:36:00,48.7,42.5,30.33,WNW,292,0.9,2.0,79,0.00,,OVC025,0.00,VWS V14.00,2013-05-20 11:36:00,
2013-05-20 04:37:00,48.7,42.5,30.33,WNW,292,0.0,0.9,79,0.00,,OVC025,0.00,VWS V14.00,2013-05-20 11:37:00,
2013-05-20 04:41:00,48.7,42.5,30.33,SSW,202,1.1,1.1,79,0.00,,OVC025,0.00,VWS V14.00,2013-05-20 11:41:00,
2013-05-20 04:42:00,48.7,42.5,30.33,WSW,248,0.0,1.1,79,0.00,,OVC025,0.00,VWS V14.00,2013-05-20 11:42:00,
2013-05-20 04:46:00,48.7,42.5,30.33,WNW,292,0.0,1.1,79,0.00,,OVC025,0.00,VWS V14.00,2013-05-20 11:46:00,
2013-05-20 04:47:00,48.7,42.5,30.33,WNW,292,0.0,1.1,79,0.00,,OVC025,0.00,VWS V14.00,2013-05-20 11:47:00,
2013-05-20 04:51:00,48.7,42.5,30.30,SSW,202,0.9,1.1,79,0.00,,OVC025,0.00,VWS V14.00,2013-05-20 11:51:00,
2013-05-20 04:52:00,48.7,42.5,30.30,WSW,248,1.1,1.1,79,0.00,,OVC025,0.00,VWS V14.00,2013-05-20 11:52:00,
2013-05-20 04:56:00,48.7,42.5,30.30,SSW,202,0.0,1.1,79,0.00,,OVC025,0.00,VWS V14.00,2013-05-20 11:56:00,
2013-05-20 04:57:00,48.7,42.5,30.30,WNW,292,0.0,1.1,79,0.00,,OVC025,0.00,VWS V14.00,2013-05-20 11:57:00,
2013-05-20 05:01:00,48.7,42.5,30.30,WSW,248,0.0,1.1,79,0.00,,OVC025,0.00,VWS V14.00,2013-05-20 12:01:00,
2013-05-20 05:02:00,48.7,42.5,30.30,West,270,0.0,1.1,79,0.00,,OVC025,0.00,VWS V14.00,2013-05-20 12:02:00,
2013-05-20 05:06:00,48.7,42.5,30.30,WNW,292,0.0,1.1,79,0.00,,OVC025,0.00,VWS V14.00,2013-05-20 12:06:00,
2013-05-20 05:07:00,48.7,42.5,30.30,WNW,292,0.0,1.1,79,0.00,,OVC025,0.00,VWS V14.00,2013-05-20 12:07:00,
2013-05-20 05:11:00,48.7,42.5,30.30,SW,225,0.0,0.0,79,0.00,,OVC025,0.00,VWS V14.00,2013-05-20 12:11:00,
2013-05-20 05:12:00,48.7,42.5,30.30,WNW,292,0.0,0.0,79,0.00,,OVC025,0.00,VWS V14.00,2013-05-20 12:12:00,
2013-05-20 05:16:00,48.7,42.5,30.30,WNW,292,0.0,0.0,79,0.00,,OVC025,0.00,VWS V14.00,2013-05-20 12:16:00,
2013-05-20 05:17:00,48.7,42.5,30.30,SW,225,1.1,1.1,79,0.00,,OVC025,0.00,VWS V14.00,2013-05-20 12:17:00,
2013-05-20 05:18:00,48.7,42.5,30.30,WSW,248,0.9,1.1,79,0.00,,OVC025,0.00,VWS V14.00,2013-05-20 12:18:00,
2013-05-20 05:21:00,48.7,42.5,30.30,SSW,202,0.0,1.1,79,0.00,,OVC025,0.00,VWS V14.00,2013-05-20 12:21:00,
2013-05-20 05:22:00,48.7,42.5,30.30,SSW,202,0.0,1.1,79,0.00,,OVC025,0.00,VWS V14.00,2013-05-20 12:22:00,
2013-05-20 05:23:00,48.7,42.5,30.30,SE,135,0.0,1.1,79,0.00,,OVC025,0.00,VWS V14.00,2013-05-20 12:23:00,
2013-05-20 05:26:00,48.7,42.5,30.30,WNW,292,1.3,1.3,79,0.00,,OVC025,0.00,VWS V14.00,2013-05-20 12:26:00,
2013-05-20 05:27:00,48.7,42.5,30.30,WNW,292,0.0,1.3,79,0.00,,OVC025,0.00,VWS V14.00,2013-05-20 12:27:00,
2013-05-20 05:28:00,48.7,42.5,30.30,SW,225,1.1,1.3,79,0.00,,OVC025,0.00,VWS V14.00,2013-05-20 12:28:00,
2013-05-20 05:31:00,48.7,42.5,30.30,WSW,248,0.0,1.3,79,0.00,,OVC025,0.00,VWS V14.00,2013-05-20 12:31:00,
2013-05-20 05:32:00,48.7,42.5,30.30,WSW,248,0.0,1.3,79,0.00,,OVC025,0.00,VWS V14.00,2013-05-20 12:32:00,
2013-05-20 05:33:00,48.7,42.5,30.30,West,270,0.0,1.3,79,0.00,,OVC025,0.00,VWS V14.00,2013-05-20 12:33:00,
2013-05-20 05:37:00,48.7,42.9,30.30,WSW,248,0.0,1.3,80,0.00,,OVC016,0.00,VWS V14.00,2013-05-20 12:37:00,
2013-05-20 05:38:00,48.7,42.9,30.30,WSW,248,0.0,1.3,80,0.00,,OVC016,0.00,VWS V14.00,2013-05-20 12:38:00,
2013-05-20 05:42:00,48.7,42.9,30.30,West,270,0.0,1.3,80,0.00,,OVC016,0.00,VWS V14.00,2013-05-20 12:42:00,
2013-05-20 05:43:00,48.7,42.9,30.30,West,270,0.0,1.3,80,0.00,,OVC016,0.00,VWS V14.00,2013-05-20 12:43:00,
2013-05-20 05:47:00,48.7,42.9,30.30,West,270,0.0,0.0,80,0.00,,OVC016,0.00,VWS V14.00,2013-05-20 12:47:00,
2013-05-20 05:48:00,48.9,43.0,30.30,West,270,0.0,0.0,80,0.00,,OVC016,0.00,VWS V14.00,2013-05-20 12:48:00,
2013-05-20 05:52:00,48.9,43.0,30.30,West,270,0.0,0.0,80,0.00,,OVC018,0.00,VWS V14.00,2013-05-20 12:52:00,
2013-05-20 05:53:00,48.9,43.0,30.30,West,270,0.0,0.0,80,0.00,,OVC018,0.00,VWS V14.00,2013-05-20 12:53:00,
2013-05-20 05:57:00,49.1,43.2,30.30,West,270,0.0,0.0,80,0.00,,OVC016,0.00,VWS V14.00,2013-05-20 12:57:00,
2013-05-20 05:58:00,49.1,43.5,30.30,West,270,0.0,0.0,81,0.00,,OVC016,0.00,VWS V14.00,2013-05-20 12:58:00,
2013-05-20 06:02:00,49.1,43.5,30.30,West,270,0.0,0.0,81,0.00,,OVC018,0.00,VWS V14.00,2013-05-20 13:02:00,
2013-05-20 06:03:00,49.1,43.5,30.30,West,270,0.0,0.0,81,0.00,,OVC018,0.00,VWS V14.00,2013-05-20 13:03:00,
2013-05-20 06:07:00,49.1,43.2,30.30,NNW,338,0.0,0.0,80,0.00,,OVC018,0.00,VWS V14.00,2013-05-20 13:07:00,
2013-05-20 06:08:00,49.1,43.2,30.30,WNW,292,0.9,0.9,80,0.00,,OVC018,0.00,VWS V14.00,2013-05-20 13:08:00,
2013-05-20 06:12:00,49.3,43.4,30.30,WNW,292,0.0,0.9,80,0.00,,OVC018,0.00,VWS V14.00,2013-05-20 13:12:00,
2013-05-20 06:13:00,49.3,43.4,30.30,WNW,292,0.0,0.9,80,0.00,,OVC018,0.00,VWS V14.00,2013-05-20 13:13:00,
2013-05-20 06:17:00,49.5,43.6,30.30,WNW,292,0.0,0.9,80,0.00,,OVC018,0.00,VWS V14.00,2013-05-20 13:17:00,
2013-05-20 06:18:00,49.5,43.6,30.30,WNW,292,0.0,0.9,80,0.00,,OVC018,0.00,VWS V14.00,2013-05-20 13:18:00,
2013-05-20 06:22:00,49.5,43.6,30.30,WNW,292,0.0,0.9,80,0.00,,OVC018,0.00,VWS V14.00,2013-05-20 13:22:00,
2013-05-20 06:23:00,49.5,43.6,30.30,WNW,292,0.0,0.9,80,0.00,,OVC018,0.00,VWS V14.00,2013-05-20 13:23:00,
2013-05-20 06:27:00,49.6,43.7,30.30,WNW,292,0.0,0.0,80,0.00,,OVC018,0.00,VWS V14.00,2013-05-20 13:27:00,
2013-05-20 06:28:00,49.6,43.7,30.30,WNW,292,0.0,0.0,80,0.00,,OVC018,0.00,VWS V14.00,2013-05-20 13:28:00,
2013-05-20 06:32:00,49.6,43.4,30.30,WNW,292,0.0,0.0,79,0.00,,OVC018,0.00,VWS V14.00,2013-05-20 13:32:00,
2013-05-20 06:33:00,49.6,43.4,30.30,WNW,292,0.0,0.0,79,0.00,,OVC018,0.00,VWS V14.00,2013-05-20 13:33:00,
2013-05-20 06:37:00,49.5,43.2,30.30,WNW,292,0.0,0.0,79,0.00,,OVC018,0.00,VWS V14.00,2013-05-20 13:37:00,
2013-05-20 06:38:00,49.5,43.2,30.30,WNW,292,0.0,0.0,79,0.00,,OVC018,0.00,VWS V14.00,2013-05-20 13:38:00,
2013-05-20 06:42:00,49.5,43.2,30.30,NNW,338,0.0,0.0,79,0.00,,OVC018,0.00,VWS V14.00,2013-05-20 13:42:00,
2013-05-20 06:43:00,49.5,43.2,30.30,NNW,338,0.0,0.0,79,0.00,,OVC018,0.00,VWS V14.00,2013-05-20 13:43:00,
2013-05-20 06:44:00,49.5,43.2,30.30,WNW,292,0.0,0.0,79,0.00,,OVC018,0.00,VWS V14.00,2013-05-20 13:44:00,
2013-05-20 06:47:00,49.5,43.2,30.30,WNW,292,0.0,0.0,79,0.00,,OVC018,0.00,VWS V14.00,2013-05-20 13:47:00,
2013-05-20 06:48:00,49.5,43.2,30.27,WNW,292,0.0,0.0,79,0.00,,OVC018,0.00,VWS V14.00,2013-05-20 13:48:00,
2013-05-20 06:49:00,49.5,43.2,30.27,WNW,292,0.0,0.0,79,0.00,,OVC018,0.00,VWS V14.00,2013-05-20 13:49:00,
2013-05-20 06:52:00,49.5,43.2,30.27,WNW,292,0.0,0.0,79,0.00,,OVC016,0.00,VWS V14.00,2013-05-20 13:52:00,
2013-05-20 06:53:00,49.6,43.4,30.27,WNW,292,0.0,0.0,79,0.00,,OVC016,0.00,VWS V14.00,2013-05-20 13:53:00,
2013-05-20 06:54:00,49.6,43.4,30.27,WNW,292,0.0,0.0,79,0.00,,OVC016,0.00,VWS V14.00,2013-05-20 13:54:00,
2013-05-20 06:57:00,49.6,43.4,30.27,WNW,292,0.0,0.0,79,0.00,,OVC016,0.00,VWS V14.00,2013-05-20 13:57:00,
2013-05-20 06:58:00,49.6,43.4,30.27,WNW,292,0.0,0.0,79,0.00,,OVC016,0.00,VWS V14.00,2013-05-20 13:58:00,
2013-05-20 06:59:00,49.6,43.4,30.27,WNW,292,0.0,0.0,79,0.00,,OVC016,0.00,VWS V14.00,2013-05-20 13:59:00,
2013-05-20 07:02:00,49.6,43.4,30.30,SSW,202,0.9,0.9,79,0.00,,OVC016,0.00,VWS V14.00,2013-05-20 14:02:00,
2013-05-20 07:03:00,49.6,43.4,30.30,SSW,202,0.9,0.9,79,0.00,,OVC016,0.00,VWS V14.00,2013-05-20 14:03:00,
2013-05-20 07:04:00,49.6,43.4,30.30,West,270,0.0,0.9,79,0.00,,OVC016,0.00,VWS V14.00,2013-05-20 14:04:00,
2013-05-20 07:07:00,49.6,43.4,30.30,WNW,292,0.9,1.3,79,0.00,,OVC016,0.00,VWS V14.00,2013-05-20 14:07:00,
2013-05-20 07:08:00,49.6,43.4,30.30,WNW,292,0.9,1.3,79,0.00,,OVC016,0.00,VWS V14.00,2013-05-20 14:08:00,
2013-05-20 07:09:00,49.6,43.4,30.30,WNW,292,0.9,1.3,79,0.00,,OVC016,0.00,VWS V14.00,2013-05-20 14:09:00,
2013-05-20 07:13:00,49.6,43.4,30.30,WNW,292,2.0,2.0,79,0.00,,OVC016,0.00,VWS V14.00,2013-05-20 14:13:00,
2013-05-20 07:14:00,49.6,43.4,30.30,SSW,202,0.0,2.0,79,0.00,,OVC016,0.00,VWS V14.00,2013-05-20 14:14:00,
2013-05-20 07:18:00,49.6,43.4,30.27,WSW,248,0.0,2.0,79,0.00,,OVC016,0.00,VWS V14.00,2013-05-20 14:18:00,
2013-05-20 07:19:00,49.6,43.4,30.27,WSW,248,3.1,3.1,79,0.00,,OVC016,0.00,VWS V14.00,2013-05-20 14:19:00,
2013-05-20 07:23:00,49.8,43.6,30.27,WNW,292,0.0,3.1,79,0.00,,OVC016,0.00,VWS V14.00,2013-05-20 14:23:00,
2013-05-20 07:24:00,49.8,43.6,30.27,WSW,248,0.0,3.1,79,0.00,,OVC016,0.00,VWS V14.00,2013-05-20 14:24:00,
2013-05-20 07:28:00,49.6,43.4,30.27,West,270,0.0,3.1,79,0.00,,OVC016,0.00,VWS V14.00,2013-05-20 14:28:00,
2013-05-20 07:29:00,49.6,43.4,30.27,West,270,0.0,3.1,79,0.00,,OVC016,0.00,VWS V14.00,2013-05-20 14:29:00,
2013-05-20 07:33:00,49.8,43.6,30.27,WSW,248,0.9,3.1,79,0.00,,OVC016,0.00,VWS V14.00,2013-05-20 14:33:00,
2013-05-20 07:34:00,49.8,43.9,30.27,WNW,292,0.0,3.1,80,0.00,,OVC016,0.00,VWS V14.00,2013-05-20 14:34:00,
2013-05-20 07:38:00,50.0,43.8,30.27,West,270,0.0,2.2,79,0.00,,OVC016,0.00,VWS V14.00,2013-05-20 14:38:00,
2013-05-20 07:39:00,50.0,43.8,30.27,WNW,292,0.0,2.2,79,0.00,,OVC016,0.00,VWS V14.00,2013-05-20 14:39:00,
2013-05-20 07:43:00,50.0,43.8,30.27,West,270,0.0,2.2,79,0.00,,OVC016,0.00,VWS V14.00,2013-05-20 14:43:00,
2013-05-20 07:44:00,50.0,43.8,30.27,SE,135,1.1,1.1,79,0.00,,OVC016,0.00,VWS V14.00,2013-05-20 14:44:00,
2013-05-20 07:48:00,50.0,43.8,30.27,SE,135,0.0,1.1,79,0.00,,OVC016,0.00,VWS V14.00,2013-05-20 14:48:00,
2013-05-20 07:49:00,50.0,43.8,30.27,SE,135,0.0,1.1,79,0.00,,OVC016,0.00,VWS V14.00,2013-05-20 14:49:00,
2013-05-20 07:53:00,50.2,43.9,30.27,WNW,292,0.0,1.1,79,0.00,,OVC016,0.00,VWS V14.00,2013-05-20 14:53:00,
2013-05-20 07:54:00,50.2,43.9,30.27,NNW,338,0.0,1.1,79,0.00,,OVC016,0.00,VWS V14.00,2013-05-20 14:54:00,
2013-05-20 07:58:00,50.2,43.9,30.27,East,90,0.0,1.1,79,0.00,,OVC016,0.00,VWS V14.00,2013-05-20 14:58:00,
2013-05-20 07:59:00,50.2,43.9,30.27,East,90,3.1,3.1,79,0.00,,OVC016,0.00,VWS V14.00,2013-05-20 14:59:00,
2013-05-20 08:03:00,50.4,44.1,30.27,NW,315,0.0,3.1,79,0.00,,OVC016,0.00,VWS V14.00,2013-05-20 15:03:00,
2013-05-20 08:04:00,50.4,44.1,30.27,NW,315,0.0,3.1,79,0.00,,OVC016,0.00,VWS V14.00,2013-05-20 15:04:00,
2013-05-20 08:08:00,50.5,44.3,30.27,East,90,0.0,3.1,79,0.00,,OVC016,0.00,VWS V14.00,2013-05-20 15:08:00,
2013-05-20 08:09:00,50.7,44.8,30.27,East,90,0.0,3.1,80,0.00,,OVC016,0.00,VWS V14.00,2013-05-20 15:09:00,
2013-05-20 08:13:00,50.7,44.5,30.27,ESE,112,0.0,3.1,79,0.00,,OVC016,0.00,VWS V14.00,2013-05-20 15:13:00,
2013-05-20 08:14:00,50.7,44.1,30.27,ESE,112,0.0,3.1,78,0.00,,OVC016,0.00,VWS V14.00,2013-05-20 15:14:00,
2013-05-20 08:18:00,50.7,44.1,30.27,NE,45,0.0,3.1,78,0.00,,OVC016,0.00,VWS V14.00,2013-05-20 15:18:00,
2013-05-20 08:19:00,50.7,44.1,30.27,ENE,68,0.0,3.1,78,0.00,,OVC016,0.00,VWS V14.00,2013-05-20 15:19:00,
2013-05-20 08:20:00,50.7,44.1,30.27,ENE,68,0.0,3.1,78,0.00,,OVC016,0.00,VWS V14.00,2013-05-20 15:20:00,
2013-05-20 08:23:00,50.9,44.6,30.27,WNW,292,0.0,3.1,79,0.00,,OVC016,0.00,VWS V14.00,2013-05-20 15:23:00,
2013-05-20 08:24:00,50.9,44.6,30.27,WNW,292,0.0,3.1,79,0.00,,OVC016,0.00,VWS V14.00,2013-05-20 15:24:00,
2013-05-20 08:25:00,51.1,44.5,30.27,SSW,202,0.0,3.1,78,0.00,,OVC016,0.00,VWS V14.00,2013-05-20 15:25:00,
2013-05-20 08:28:00,51.1,44.5,30.27,East,90,0.0,0.0,78,0.00,,OVC016,0.00,VWS V14.00,2013-05-20 15:28:00,
2013-05-20 08:29:00,51.1,44.5,30.27,East,90,0.0,0.0,78,0.00,,OVC016,0.00,VWS V14.00,2013-05-20 15:29:00,
2013-05-20 08:30:00,51.1,44.5,30.27,West,270,1.1,1.1,78,0.00,,OVC016,0.00,VWS V14.00,2013-05-20 15:30:00,
2013-05-20 08:34:00,51.3,44.6,30.27,West,270,0.0,1.1,78,0.00,,OVC016,0.00,VWS V14.00,2013-05-20 15:34:00,
2013-05-20 08:35:00,51.3,44.6,30.27,West,270,0.0,1.1,78,0.00,,OVC016,0.00,VWS V14.00,2013-05-20 15:35:00,
2013-05-20 08:39:00,51.4,44.8,30.27,NNW,338,0.0,1.1,78,0.00,,OVC016,0.00,VWS V14.00,2013-05-20 15:39:00,
2013-05-20 08:40:00,51.4,44.8,30.27,NNW,338,0.0,1.1,78,0.00,,OVC016,0.00,VWS V14.00,2013-05-20 15:40:00,
2013-05-20 08:44:00,51.6,45.0,30.27,NNE,22,0.0,1.1,78,0.00,,OVC016,0.00,VWS V14.00,2013-05-20 15:44:00,
2013-05-20 08:45:00,51.6,45.0,30.27,NNW,338,0.0,1.1,78,0.00,,OVC016,0.00,VWS V14.00,2013-05-20 15:45:00,
2013-05-20 08:49:00,51.6,45.0,30.27,West,270,0.0,0.0,78,0.00,,OVC016,0.00,VWS V14.00,2013-05-20 15:49:00,
2013-05-20 08:50:00,51.6,44.7,30.27,ESE,112,0.9,0.9,77,0.00,,OVC016,0.00,VWS V14.00,2013-05-20 15:50:00,
2013-05-20 08:54:00,51.6,44.7,30.27,SSE,158,0.0,0.9,77,0.00,,OVC016,0.00,VWS V14.00,2013-05-20 15:54:00,
2013-05-20 08:55:00,51.8,44.8,30.27,West,270,0.0,0.9,77,0.00,,OVC016,0.00,VWS V14.00,2013-05-20 15:55:00,
2013-05-20 08:59:00,51.8,44.8,30.27,WNW,292,0.0,0.9,77,0.00,,OVC016,0.00,VWS V14.00,2013-05-20 15:59:00,
2013-05-20 09:00:00,52.0,45.0,30.27,WNW,292,0.0,0.9,77,0.00,,OVC016,0.00,VWS V14.00,2013-05-20 16:00:00,
2013-05-20 09:04:00,52.2,45.2,30.27,ESE,112,0.0,1.1,77,0.00,,OVC016,0.00,VWS V14.00,2013-05-20 16:04:00,
2013-05-20 09:05:00,52.2,45.2,30.27,ESE,112,0.0,1.1,77,0.00,,OVC016,0.00,VWS V14.00,2013-05-20 16:05:00,
2013-05-20 09:09:00,52.3,45.3,30.27,ESE,112,0.0,1.1,77,0.00,,OVC016,0.00,VWS V14.00,2013-05-20 16:09:00,
2013-05-20 09:10:00,52.3,45.3,30.27,ESE,112,0.0,1.1,77,0.00,,OVC016,0.00,VWS V14.00,2013-05-20 16:10:00,
2013-05-20 09:14:00,52.2,44.8,30.27,NNW,338,0.0,1.6,76,0.00,,OVC016,0.00,VWS V14.00,2013-05-20 16:14:00,
2013-05-20 09:15:00,52.2,44.8,30.27,NNW,338,0.0,1.6,76,0.00,,OVC016,0.00,VWS V14.00,2013-05-20 16:15:00,
2013-05-20 09:19:00,52.2,44.8,30.24,ENE,68,0.0,1.6,76,0.00,,OVC016,0.00,VWS V14.00,2013-05-20 16:19:00,
2013-05-20 09:20:00,52.2,44.8,30.24,ENE,68,0.0,1.6,76,0.00,,OVC016,0.00,VWS V14.00,2013-05-20 16:20:00,
2013-05-20 09:24:00,52.7,45.7,30.24,ESE,112,0.0,1.6,77,0.00,,OVC016,0.00,VWS V14.00,2013-05-20 16:24:00,
2013-05-20 09:25:00,52.7,45.7,30.24,ESE,112,0.0,1.6,77,0.00,,OVC016,0.00,VWS V14.00,2013-05-20 16:25:00,
2013-05-20 09:26:00,52.7,45.7,30.24,SSW,202,0.0,1.6,77,0.00,,OVC016,0.00,VWS V14.00,2013-05-20 16:26:00,
2013-05-20 09:29:00,52.9,45.5,30.24,NW,315,0.0,1.6,76,0.00,,OVC016,0.00,VWS V14.00,2013-05-20 16:29:00,
2013-05-20 09:30:00,52.9,45.5,30.24,East,90,0.0,1.6,76,0.00,,OVC016,0.00,VWS V14.00,2013-05-20 16:30:00,
2013-05-20 09:31:00,52.9,45.5,30.24,East,90,0.0,0.9,76,0.00,,OVC016,0.00,VWS V14.00,2013-05-20 16:31:00,
2013-05-20 09:34:00,53.2,45.9,30.24,NE,45,0.0,0.9,76,0.00,,OVC016,0.00,VWS V14.00,2013-05-20 16:34:00,
2013-05-20 09:35:00,53.2,45.9,30.24,NE,45,0.0,0.9,76,0.00,,OVC016,0.00,VWS V14.00,2013-05-20 16:35:00,
2013-05-20 09:36:00,53.2,45.9,30.24,NE,45,0.0,0.0,76,0.00,,OVC016,0.00,VWS V14.00,2013-05-20 16:36:00,
2013-05-20 09:39:00,53.2,45.9,30.24,NNW,338,0.0,1.1,76,0.00,,OVC016,0.00,VWS V14.00,2013-05-20 16:39:00,
2013-05-20 09:40:00,53.2,45.9,30.24,NNW,338,0.0,1.1,76,0.00,,OVC016,0.00,VWS V14.00,2013-05-20 16:40:00,
2013-05-20 09:41:00,53.2,45.9,30.24,WNW,292,0.0,1.1,76,0.00,,OVC016,0.00,VWS V14.00,2013-05-20 16:41:00,
2013-05-20 09:44:00,53.2,45.5,30.24,East,90,0.0,1.1,75,0.00,,OVC016,0.00,VWS V14.00,2013-05-20 16:44:00,
2013-05-20 09:45:00,53.2,45.5,30.24,East,90,0.0,1.1,75,0.00,,OVC016,0.00,VWS V14.00,2013-05-20 16:45:00,
2013-05-20 09:46:00,53.2,45.5,30.24,NNW,338,0.0,1.1,75,0.00,,OVC016,0.00,VWS V14.00,2013-05-20 16:46:00,
2013-05-20 09:49:00,53.6,45.9,30.24,NE,45,0.0,1.1,75,0.00,,OVC016,0.00,VWS V14.00,2013-05-20 16:49:00,
2013-05-20 09:50:00,53.6,45.9,30.24,NE,45,0.0,1.1,75,0.00,,OVC016,0.00,VWS V14.00,2013-05-20 16:50:00,
2013-05-20 09:51:00,53.6,45.9,30.24,WNW,292,0.0,1.1,75,0.00,,OVC016,0.00,VWS V14.00,2013-05-20 16:51:00,
2013-05-20 09:54:00,54.0,46.2,30.24,NNW,338,0.0,1.1,75,0.00,,OVC016,0.00,VWS V14.00,2013-05-20 16:54:00,
2013-05-20 09:55:00,54.0,46.2,30.24,WNW,292,1.3,1.3,75,0.00,,OVC016,0.00,VWS V14.00,2013-05-20 16:55:00,
2013-05-20 09:56:00,54.0,46.2,30.24,WNW,292,1.3,1.3,75,0.00,,OVC016,0.00,VWS V14.00,2013-05-20 16:56:00,
2013-05-20 09:59:00,54.1,46.4,30.24,WNW,292,0.0,1.3,75,0.00,,OVC016,0.00,VWS V14.00,2013-05-20 16:59:00,
2013-05-20 10:00:00,54.1,46.4,30.24,WNW,292,0.0,1.3,75,0.00,,OVC016,0.00,VWS V14.00,2013-05-20 17:00:00,
2013-05-20 10:01:00,54.3,46.6,30.24,WNW,292,0.0,1.3,75,0.00,,OVC016,0.00,VWS V14.00,2013-05-20 17:01:00,
2013-05-20 10:04:00,54.3,46.2,30.24,NW,315,1.1,1.3,74,0.00,,OVC016,0.00,VWS V14.00,2013-05-20 17:04:00,
2013-05-20 10:05:00,54.3,46.2,30.24,NW,315,1.1,1.3,74,0.00,,OVC016,0.00,VWS V14.00,2013-05-20 17:05:00,
2013-05-20 10:06:00,54.3,46.2,30.24,NNW,338,0.9,1.3,74,0.00,,OVC016,0.00,VWS V14.00,2013-05-20 17:06:00,
2013-05-20 10:10:00,54.5,46.4,30.24,West,270,0.0,1.1,74,0.00,,OVC016,0.00,VWS V14.00,2013-05-20 17:10:00,
2013-05-20 10:11:00,54.5,46.4,30.24,West,270,0.0,1.1,74,0.00,,OVC016,0.00,VWS V14.00,2013-05-20 17:11:00,
2013-05-20 10:15:00,54.7,46.6,30.24,WNW,292,0.0,1.3,74,0.00,,OVC016,0.00,VWS V14.00,2013-05-20 17:15:00,
2013-05-20 10:16:00,54.9,46.7,30.24,WNW,292,0.0,1.3,74,0.00,,OVC016,0.00,VWS V14.00,2013-05-20 17:16:00,
2013-05-20 10:20:00,54.9,46.7,30.21,NE,45,0.0,1.3,74,0.00,,OVC016,0.00,VWS V14.00,2013-05-20 17:20:00,
2013-05-20 10:21:00,54.9,46.7,30.21,ESE,112,0.0,1.3,74,0.00,,OVC016,0.00,VWS V14.00,2013-05-20 17:21:00,
2013-05-20 10:25:00,55.4,46.9,30.21,SE,135,0.0,1.3,73,0.00,,OVC016,0.00,VWS V14.00,2013-05-20 17:25:00,
2013-05-20 10:26:00,55.4,46.9,30.21,East,90,0.0,1.3,73,0.00,,OVC016,0.00,VWS V14.00,2013-05-20 17:26:00,
2013-05-20 10:30:00,55.9,47.4,30.21,NNW,338,0.0,1.3,73,0.00,,OVC016,0.00,VWS V14.00,2013-05-20 17:30:00,
2013-05-20 10:31:00,55.9,47.4,30.21,WNW,292,0.0,1.3,73,0.00,,OVC016,0.00,VWS V14.00,2013-05-20 17:31:00,
2013-05-20 10:35:00,55.9,47.4,30.21,WNW,292,0.0,1.3,73,0.00,,OVC018,0.00,VWS V14.00,2013-05-20 17:35:00,
2013-05-20 10:36:00,55.9,47.4,30.21,WNW,292,0.0,1.3,73,0.00,,OVC018,0.00,VWS V14.00,2013-05-20 17:36:00,
2013-05-20 10:40:00,56.3,47.8,30.21,West,270,0.0,0.0,73,0.00,,OVC018,0.00,VWS V14.00,2013-05-20 17:40:00,
2013-05-20 10:41:00,56.5,47.9,30.21,WSW,248,1.1,1.1,73,0.00,,OVC018,0.00,VWS V14.00,2013-05-20 17:41:00,
2013-05-20 10:45:00,56.5,47.6,30.21,WNW,292,0.0,2.0,72,0.00,,OVC018,0.00,VWS V14.00,2013-05-20 17:45:00,
2013-05-20 10:46:00,56.5,47.6,30.21,WNW,292,0.0,2.0,72,0.00,,OVC018,0.00,VWS V14.00,2013-05-20 17:46:00,
2013-05-20 10:50:00,56.5,47.6,30.21,NW,315,1.6,2.0,72,0.00,,OVC018,0.00,VWS V14.00,2013-05-20 17:50:00,
2013-05-20 10:51:00,56.5,47.6,30.21,NW,315,1.6,2.0,72,0.00,,OVC018,0.00,VWS V14.00,2013-05-20 17:51:00,
2013-05-20 10:55:00,56.7,47.4,30.21,SE,135,0.0,2.5,71,0.00,,OVC018,0.00,VWS V14.00,2013-05-20 17:55:00,
2013-05-20 10:56:00,56.5,47.2,30.21,ESE,112,0.9,2.5,71,0.00,,OVC018,0.00,VWS V14.00,2013-05-20 17:56:00,
2013-05-20 11:00:00,56.8,47.5,30.21,WNW,292,0.0,2.5,71,0.00,,OVC018,0.00,VWS V14.00,2013-05-20 18:00:00,
2013-05-20 11:01:00,57.0,47.7,30.21,WSW,248,1.1,2.5,71,0.00,,OVC018,0.00,VWS V14.00,2013-05-20 18:01:00,
2013-05-20 11:05:00,57.2,47.9,30.21,WNW,292,0.0,1.6,71,0.00,,OVC018,0.00,VWS V14.00,2013-05-20 18:05:00,
2013-05-20 11:06:00,57.2,47.9,30.21,WNW,292,0.0,1.6,71,0.00,,OVC018,0.00,VWS V14.00,2013-05-20 18:06:00,
2013-05-20 11:07:00,57.2,47.9,30.21,NNW,338,0.0,1.3,71,0.00,,OVC018,0.00,VWS V14.00,2013-05-20 18:07:00,
2013-05-20 11:10:00,57.6,47.9,30.21,West,270,0.9,0.9,70,0.00,,OVC018,0.00,VWS V14.00,2013-05-20 18:10:00,
2013-05-20 11:11:00,57.6,47.9,30.21,WNW,292,0.0,0.9,70,0.00,,OVC018,0.00,VWS V14.00,2013-05-20 18:11:00,
2013-05-20 11:12:00,57.7,48.0,30.21,WNW,292,0.0,0.9,70,0.00,,OVC018,0.00,VWS V14.00,2013-05-20 18:12:00,
2013-05-20 11:15:00,57.7,48.0,30.21,NNE,22,0.0,1.3,70,0.00,,OVC018,0.00,VWS V14.00,2013-05-20 18:15:00,
2013-05-20 11:16:00,57.7,48.0,30.21,NNE,22,0.0,1.3,70,0.00,,OVC018,0.00,VWS V14.00,2013-05-20 18:16:00,
2013-05-20 11:17:00,58.1,48.4,30.21,NW,315,0.0,1.3,70,0.00,,OVC018,0.00,VWS V14.00,2013-05-20 18:17:00,
2013-05-20 11:20:00,58.1,48.4,30.21,ENE,68,2.0,2.0,70,0.00,,OVC018,0.00,VWS V14.00,2013-05-20 18:20:00,
2013-05-20 11:21:00,58.1,48.4,30.21,ENE,68,2.0,2.0,70,0.00,,OVC018,0.00,VWS V14.00,2013-05-20 18:21:00,
2013-05-20 11:22:00,58.1,48.4,30.21,East,90,0.0,2.0,70,0.00,,OVC018,0.00,VWS V14.00,2013-05-20 18:22:00,
2013-05-20 11:25:00,58.3,48.5,30.21,WNW,292,0.0,2.0,70,0.00,,OVC018,0.00,VWS V14.00,2013-05-20 18:25:00,
2013-05-20 11:26:00,58.6,48.9,30.21,NNW,338,0.0,2.0,70,0.00,,OVC018,0.00,VWS V14.00,2013-05-20 18:26:00,
2013-05-20 11:27:00,58.6,48.9,30.21,NNW,338,0.0,2.0,70,0.00,,OVC018,0.00,VWS V14.00,2013-05-20 18:27:00,
2013-05-20 11:30:00,58.5,48.3,30.21,ENE,68,0.0,1.6,69,0.00,,OVC018,0.00,VWS V14.00,2013-05-20 18:30:00,
2013-05-20 11:31:00,58.6,48.5,30.21,WNW,292,1.1,1.6,69,0.00,,OVC018,0.00,VWS V14.00,2013-05-20 18:31:00,
2013-05-20 11:32:00,58.6,48.5,30.21,WNW,292,2.0,2.0,69,0.00,,OVC018,0.00,VWS V14.00,2013-05-20 18:32:00,
2013-05-20 11:35:00,58.8,49.1,30.21,SSW,202,0.0,2.5,70,0.00,,OVC020,0.00,VWS V14.00,2013-05-20 18:35:00,
2013-05-20 11:36:00,58.5,48.3,30.21,SSW,202,0.0,2.5,69,0.00,,OVC020,0.00,VWS V14.00,2013-05-20 18:36:00,
2013-05-20 11:37:00,58.5,48.3,30.21,ENE,68,0.0,2.5,69,0.00,,OVC020,0.00,VWS V14.00,2013-05-20 18:37:00,
2013-05-20 11:40:00,58.5,48.3,30.21,WSW,248,1.1,2.5,69,0.00,,OVC020,0.00,VWS V14.00,2013-05-20 18:40:00,
2013-05-20 11:41:00,58.5,48.3,30.21,WSW,248,1.1,2.5,69,0.00,,OVC020,0.00,VWS V14.00,2013-05-20 18:41:00,
2013-05-20 11:42:00,58.5,48.3,30.21,West,270,0.0,2.5,69,0.00,,OVC020,0.00,VWS V14.00,2013-05-20 18:42:00,
2013-05-20 11:45:00,58.8,49.1,30.21,ENE,68,0.0,1.3,70,0.00,,OVC020,0.00,VWS V14.00,2013-05-20 18:45:00,
2013-05-20 11:46:00,58.8,49.1,30.21,WNW,292,0.0,1.3,70,0.00,,OVC020,0.00,VWS V14.00,2013-05-20 18:46:00,
2013-05-20 11:47:00,59.2,49.0,30.21,WNW,292,0.0,1.3,69,0.00,,OVC020,0.00,VWS V14.00,2013-05-20 18:47:00,
2013-05-20 11:50:00,58.8,48.7,30.18,SSW,202,0.9,0.9,69,0.00,,OVC020,0.00,VWS V14.00,2013-05-20 18:50:00,
2013-05-20 11:51:00,58.8,48.7,30.18,SSW,202,0.0,0.9,69,0.00,,OVC020,0.00,VWS V14.00,2013-05-20 18:51:00,
2013-05-20 11:52:00,58.8,48.7,30.18,SSW,202,0.0,0.9,69,0.00,,OVC020,0.00,VWS V14.00,2013-05-20 18:52:00,
2013-05-20 11:56:00,58.8,48.7,30.18,NW,315,0.0,1.3,69,0.00,,OVC020,0.00,VWS V14.00,2013-05-20 18:56:00,
2013-05-20 11:57:00,58.8,48.7,30.18,ENE,68,0.0,1.3,69,0.00,,OVC020,0.00,VWS V14.00,2013-05-20 18:57:00,
2013-05-20 12:01:00,58.5,48.3,30.18,NW,315,0.9,1.1,69,0.00,,OVC020,0.00,VWS V14.00,2013-05-20 19:01:00,
2013-05-20 12:02:00,58.5,48.3,30.18,ENE,68,2.0,2.0,69,0.00,,OVC020,0.00,VWS V14.00,2013-05-20 19:02:00,
2013-05-20 12:06:00,59.0,48.9,30.18,East,90,0.0,2.0,69,0.00,,OVC020,0.00,VWS V14.00,2013-05-20 19:06:00,
2013-05-20 12:07:00,59.2,49.0,30.18,NW,315,1.3,2.0,69,0.00,,OVC020,0.00,VWS V14.00,2013-05-20 19:07:00,
2013-05-20 12:11:00,58.8,48.7,30.18,ENE,68,0.0,2.0,69,0.00,,OVC020,0.00,VWS V14.00,2013-05-20 19:11:00,
2013-05-20 12:12:00,58.8,48.7,30.18,East,90,0.0,2.0,69,0.00,,OVC020,0.00,VWS V14.00,2013-05-20 19:12:00,
2013-05-20 12:16:00,58.6,48.1,30.18,NW,315,1.1,2.7,68,0.00,,OVC020,0.00,VWS V14.00,2013-05-20 19:16:00,
2013-05-20 12:17:00,58.6,48.1,30.18,ENE,68,0.0,2.7,68,0.00,,OVC020,0.00,VWS V14.00,2013-05-20 19:17:00,
2013-05-20 12:21:00,58.3,47.8,30.18,NE,45,0.9,2.7,68,0.00,,OVC020,0.00,VWS V14.00,2013-05-20 19:21:00,
2013-05-20 12:22:00,58.5,48.3,30.18,NE,45,0.9,2.7,69,0.00,,OVC020,0.00,VWS V14.00,2013-05-20 19:22:00,
2013-05-20 12:26:00,58.6,48.1,30.18,ENE,68,0.9,2.7,68,0.00,,OVC020,0.00,VWS V14.00,2013-05-20 19:26:00,
2013-05-20 12:27:00,58.5,48.0,30.18,East,90,0.0,2.7,68,0.00,,OVC020,0.00,VWS V14.00,2013-05-20 19:27:00,
2013-05-20 12:28:00,58.5,48.0,30.18,NNW,338,0.0,2.7,68,0.00,,OVC020,0.00,VWS V14.00,2013-05-20 19:28:00,
2013-05-20 12:31:00,58.8,48.3,30.18,NW,315,0.0,2.7,68,0.00,,OVC020,0.00,VWS V14.00,2013-05-20 19:31:00,
2013-05-20 12:32:00,59.2,48.6,30.18,WNW,292,2.0,2.5,68,0.00,,OVC020,0.00,VWS V14.00,2013-05-20 19:32:00,
2013-05-20 12:33:00,59.2,48.6,30.15,WNW,292,0.9,2.5,68,0.00,,FEW020,0.00,VWS V14.00,2013-05-20 19:33:00,
2013-05-20 12:36:00,59.5,49.0,30.15,WNW,292,1.3,2.0,68,0.00,,FEW020,0.00,VWS V14.00,2013-05-20 19:36:00,
2013-05-20 12:37:00,59.5,49.0,30.15,WNW,292,1.3,2.0,68,0.00,,FEW020,0.00,VWS V14.00,2013-05-20 19:37:00,
2013-05-20 12:38:00,59.5,48.6,30.15,NW,315,0.0,2.0,67,0.00,,FEW020,0.00,VWS V14.00,2013-05-20 19:38:00,
2013-05-20 12:41:00,59.7,48.8,30.15,NW,315,0.0,2.0,67,0.00,,OVC020,0.00,VWS V14.00,2013-05-20 19:41:00,
2013-05-20 12:42:00,59.7,48.8,30.15,NW,315,0.0,2.0,67,0.00,,FEW020,0.00,VWS V14.00,2013-05-20 19:42:00,
2013-05-20 12:43:00,59.7,49.2,30.15,NNW,338,0.0,2.0,68,0.00,,FEW020,0.00,VWS V14.00,2013-05-20 19:43:00,
2013-05-20 12:46:00,60.1,49.1,30.15,West,270,0.0,2.0,67,0.00,,FEW020,0.00,VWS V14.00,2013-05-20 19:46:00,
2013-05-20 12:47:00,60.1,49.1,30.15,NNE,22,0.0,2.0,67,0.00,,FEW020,0.00,VWS V14.00,2013-05-20 19:47:00,
2013-05-20 12:48:00,60.1,49.1,30.15,NW,315,0.0,1.3,67,0.00,,CLR,0.00,VWS V14.00,2013-05-20 19:48:00,
2013-05-20 12:51:00,60.3,49.3,30.15,NW,315,0.0,1.3,67,0.00,,CLR,0.00,VWS V14.00,2013-05-20 19:51:00,
2013-05-20 12:52:00,60.3,49.3,30.15,NW,315,0.0,1.3,67,0.00,,CLR,0.00,VWS V14.00,2013-05-20 19:52:00,
2013-05-20 12:53:00,60.4,49.4,30.15,NE,45,0.0,1.3,67,0.00,,CLR,0.00,VWS V14.00,2013-05-20 19:53:00,
2013-05-20 12:56:00,60.4,49.4,30.15,NW,315,0.0,0.9,67,0.00,,CLR,0.00,VWS V14.00,2013-05-20 19:56:00,
2013-05-20 12:57:00,60.6,49.6,30.15,NE,45,1.1,1.1,67,0.00,,CLR,0.00,VWS V14.00,2013-05-20 19:57:00,
2013-05-20 12:58:00,60.6,49.6,30.15,NNE,22,0.9,1.1,67,0.00,,CLR,0.00,VWS V14.00,2013-05-20 19:58:00,
2013-05-20 13:01:00,60.6,49.6,30.15,NNW,338,0.0,1.6,67,0.00,,CLR,0.00,VWS V14.00,2013-05-20 20:01:00,
2013-05-20 13:02:00,60.8,49.8,30.15,NNW,338,0.0,1.6,67,0.00,,CLR,0.00,VWS V14.00,2013-05-20 20:02:00,
2013-05-20 13:03:00,60.8,49.8,30.15,NNW,338,0.0,1.6,67,0.00,,CLR,0.00,VWS V14.00,2013-05-20 20:03:00,
2013-05-20 13:06:00,60.6,49.2,30.15,WNW,292,1.3,1.6,66,0.00,,CLR,0.00,VWS V14.00,2013-05-20 20:06:00,
2013-05-20 13:07:00,60.6,49.2,30.15,NW,315,0.0,1.6,66,0.00,,CLR,0.00,VWS V14.00,2013-05-20 20:07:00,
2013-05-20 13:08:00,60.8,49.8,30.15,WNW,292,0.0,1.6,67,0.00,,CLR,0.00,VWS V14.00,2013-05-20 20:08:00,
2013-05-20 13:11:00,61.2,49.7,30.15,NNE,22,0.9,1.6,66,0.00,,CLR,0.00,VWS V14.00,2013-05-20 20:11:00,
2013-05-20 13:12:00,61.2,49.7,30.15,NNE,22,0.9,1.6,66,0.00,,CLR,0.00,VWS V14.00,2013-05-20 20:12:00,
2013-05-20 13:13:00,61.3,49.9,30.15,NNW,338,0.9,1.6,66,0.00,,CLR,0.00,VWS V14.00,2013-05-20 20:13:00,
2013-05-20 13:16:00,61.3,49.9,30.15,NNW,338,0.0,1.6,66,0.00,,CLR,0.00,VWS V14.00,2013-05-20 20:16:00,
2013-05-20 13:17:00,61.3,49.9,30.15,NNW,338,0.0,1.6,66,0.00,,CLR,0.00,VWS V14.00,2013-05-20 20:17:00,
2013-05-20 13:18:00,61.3,49.9,30.12,WNW,292,0.0,1.3,66,0.00,,CLR,0.00,VWS V14.00,2013-05-20 20:18:00,
2013-05-20 13:21:00,61.5,49.7,30.12,NW,315,0.0,2.0,65,0.00,,CLR,0.00,VWS V14.00,2013-05-20 20:21:00,
2013-05-20 13:22:00,61.5,49.7,30.12,NW,315,0.0,2.0,65,0.00,,CLR,0.00,VWS V14.00,2013-05-20 20:22:00,
2013-05-20 13:23:00,61.5,49.7,30.12,WSW,248,0.0,2.0,65,0.00,,CLR,0.00,VWS V14.00,2013-05-20 20:23:00,
2013-05-20 13:26:00,61.5,49.7,30.12,North,0,0.0,2.0,65,0.00,,CLR,0.00,VWS V14.00,2013-05-20 20:26:00,
2013-05-20 13:27:00,61.5,49.7,30.12,North,0,0.0,2.0,65,0.00,,CLR,0.00,VWS V14.00,2013-05-20 20:27:00,
2013-05-20 13:28:00,61.5,49.7,30.12,NNW,338,0.0,2.0,65,0.00,,CLR,0.00,VWS V14.00,2013-05-20 20:28:00,
2013-05-20 13:31:00,61.9,50.0,30.12,ENE,68,1.3,2.0,65,0.00,,CLR,0.00,VWS V14.00,2013-05-20 20:31:00,
2013-05-20 13:32:00,61.9,49.6,30.12,NNW,338,0.0,2.0,64,0.00,,CLR,0.00,VWS V14.00,2013-05-20 20:32:00,
2013-05-20 13:33:00,61.9,49.6,30.12,East,90,0.0,2.0,64,0.00,,CLR,0.00,VWS V14.00,2013-05-20 20:33:00,
2013-05-20 13:36:00,62.2,49.9,30.12,North,0,0.0,2.0,64,0.00,,CLR,0.00,VWS V14.00,2013-05-20 20:36:00,
2013-05-20 13:37:00,62.4,50.1,30.12,NW,315,0.0,2.0,64,0.00,,CLR,0.00,VWS V14.00,2013-05-20 20:37:00,
2013-05-20 13:38:00,62.4,49.7,30.12,NNW,338,0.0,1.3,63,0.00,,CLR,0.00,VWS V14.00,2013-05-20 20:38:00,
2013-05-20 13:39:00,62.4,49.7,30.12,NNW,338,0.0,1.3,63,0.00,,CLR,0.00,VWS V14.00,2013-05-20 20:39:00,
2013-05-20 13:41:00,62.6,49.8,30.12,NNE,22,0.0,1.3,63,0.00,,CLR,0.00,VWS V14.00,2013-05-20 20:41:00,
2013-05-20 13:42:00,62.6,49.8,30.12,NNE,22,0.0,1.3,63,0.00,,CLR,0.00,VWS V14.00,2013-05-20 20:42:00,
2013-05-20 13:43:00,62.6,49.8,30.12,WNW,292,0.0,1.3,63,0.00,,CLR,0.00,VWS V14.00,2013-05-20 20:43:00,
2013-05-20 13:44:00,62.6,49.8,30.12,WNW,292,0.0,1.3,63,0.00,,CLR,0.00,VWS V14.00,2013-05-20 20:44:00,
2013-05-20 13:47:00,63.0,50.2,30.12,NNE,22,0.0,1.3,63,0.00,,CLR,0.00,VWS V14.00,2013-05-20 20:47:00,
2013-05-20 13:48:00,63.0,50.2,30.12,NNW,338,0.0,1.3,63,0.00,,CLR,0.00,VWS V14.00,2013-05-20 20:48:00,
2013-05-20 13:49:00,63.0,50.2,30.12,SSW,202,0.0,0.9,63,0.00,,CLR,0.00,VWS V14.00,2013-05-20 20:49:00,
2013-05-20 13:52:00,63.1,50.3,30.12,NW,315,0.0,0.9,63,0.00,,CLR,0.00,VWS V14.00,2013-05-20 20:52:00,
2013-05-20 13:53:00,63.3,50.1,30.12,West,270,2.0,2.0,62,0.00,,CLR,0.00,VWS V14.00,2013-05-20 20:53:00,
2013-05-20 13:54:00,63.3,50.1,30.12,NNE,22,0.9,2.0,62,0.00,,CLR,0.00,VWS V14.00,2013-05-20 20:54:00,
2013-05-20 13:57:00,63.3,49.7,30.12,NNW,338,0.0,2.0,61,0.00,,CLR,0.00,VWS V14.00,2013-05-20 20:57:00,
2013-05-20 13:58:00,63.3,49.7,30.12,NNE,22,0.0,2.0,61,0.00,,CLR,0.00,VWS V14.00,2013-05-20 20:58:00,
2013-05-20 13:59:00,63.3,49.7,30.12,NNE,22,0.0,2.0,61,0.00,,CLR,0.00,VWS V14.00,2013-05-20 20:59:00,
2013-05-20 14:02:00,63.3,49.7,30.12,NNW,338,0.0,2.0,61,0.00,,CLR,0.00,VWS V14.00,2013-05-20 21:02:00,
2013-05-20 14:03:00,63.3,49.7,30.12,SE,135,0.0,2.0,61,0.00,,CLR,0.00,VWS V14.00,2013-05-20 21:03:00,
2013-05-20 14:04:00,63.5,50.3,30.12,NNE,22,1.3,2.0,62,0.00,,CLR,0.00,VWS V14.00,2013-05-20 21:04:00,
2013-05-20 14:07:00,63.0,48.9,30.12,ENE,68,0.0,2.2,60,0.00,,CLR,0.00,VWS V14.00,2013-05-20 21:07:00,
2013-05-20 14:08:00,63.0,48.9,30.12,NW,315,0.0,2.2,60,0.00,,CLR,0.00,VWS V14.00,2013-05-20 21:08:00,
2013-05-20 14:09:00,63.0,48.9,30.12,NW,315,0.0,2.2,60,0.00,,CLR,0.00,VWS V14.00,2013-05-20 21:09:00,
2013-05-20 14:12:00,63.1,49.5,30.12,NNW,338,0.0,2.5,61,0.00,,CLR,0.00,VWS V14.00,2013-05-20 21:12:00,
2013-05-20 14:13:00,63.3,49.7,30.12,NNW,338,0.0,2.5,61,0.00,,CLR,0.00,VWS V14.00,2013-05-20 21:13:00,
2013-05-20 14:14:00,63.3,49.7,30.12,NNW,338,0.0,2.5,61,0.00,,CLR,0.00,VWS V14.00,2013-05-20 21:14:00,
2013-05-20 14:17:00,63.5,49.4,30.12,NNW,338,0.0,2.5,60,0.00,,CLR,0.00,VWS V14.00,2013-05-20 21:17:00,
2013-05-20 14:18:00,63.7,49.5,30.09,NNW,338,0.0,2.5,60,0.00,,CLR,0.00,VWS V14.00,2013-05-20 21:18:00,
2013-05-20 14:19:00,63.7,49.5,30.09,SW,225,0.0,2.5,60,0.00,,CLR,0.00,VWS V14.00,2013-05-20 21:19:00,
2013-05-20 14:22:00,64.0,49.9,30.09,NNW,338,0.0,2.5,60,0.00,,CLR,0.00,VWS V14.00,2013-05-20 21:22:00,
2013-05-20 14:23:00,64.2,49.6,30.09,NNW,338,0.0,2.5,59,0.00,,CLR,0.00,VWS V14.00,2013-05-20 21:23:00,
2013-05-20 14:24:00,64.2,49.6,30.09,NNW,338,0.0,2.5,59,0.00,,CLR,0.00,VWS V14.00,2013-05-20 21:24:00,
2013-05-20 14:27:00,64.2,49.2,30.09,NW,315,0.0,1.1,58,0.00,,CLR,0.00,VWS V14.00,2013-05-20 21:27:00,
2013-05-20 14:28:00,64.4,49.3,30.09,NNW,338,0.0,1.1,58,0.00,,CLR,0.00,VWS V14.00,2013-05-20 21:28:00,
2013-05-20 14:29:00,64.4,49.3,30.09,NNW,338,0.0,1.1,58,0.00,,CLR,0.00,VWS V14.00,2013-05-20 21:29:00,
2013-05-20 14:32:00,64.4,49.3,30.09,WNW,292,0.0,1.6,58,0.00,,CLR,0.00,VWS V14.00,2013-05-20 21:32:00,
2013-05-20 14:33:00,64.4,49.3,30.09,NW,315,1.1,1.6,58,0.00,,CLR,0.00,VWS V14.00,2013-05-20 21:33:00,
2013-05-20 14:34:00,64.4,48.4,30.09,NW,315,1.1,1.6,56,0.00,,CLR,0.00,VWS V14.00,2013-05-20 21:34:00,
2013-05-20 14:37:00,64.4,48.4,30.09,NW,315,0.0,1.6,56,0.00,,CLR,0.00,VWS V14.00,2013-05-20 21:37:00,
2013-05-20 14:38:00,64.4,48.4,30.09,NW,315,0.0,1.6,56,0.00,,CLR,0.00,VWS V14.00,2013-05-20 21:38:00,
2013-05-20 14:39:00,64.6,48.5,30.09,NW,315,0.0,1.6,56,0.00,,CLR,0.00,VWS V14.00,2013-05-20 21:39:00,
2013-05-20 14:42:00,64.8,48.7,30.09,NW,315,0.0,1.6,56,0.00,,CLR,0.00,VWS V14.00,2013-05-20 21:42:00,
2013-05-20 14:43:00,64.8,48.7,30.09,WNW,292,0.0,1.6,56,0.00,,CLR,0.00,VWS V14.00,2013-05-20 21:43:00,
2013-05-20 14:44:00,64.8,48.2,30.09,WNW,292,0.0,1.6,55,0.00,,CLR,0.00,VWS V14.00,2013-05-20 21:44:00,
2013-05-20 14:45:00,64.8,48.2,30.09,NNW,338,0.0,1.6,55,0.00,,CLR,0.00,VWS V14.00,2013-05-20 21:45:00,
2013-05-20 14:47:00,64.8,48.7,30.06,NW,315,0.0,1.6,56,0.00,,CLR,0.00,VWS V14.00,2013-05-20 21:47:00,
2013-05-20 14:48:00,64.9,48.9,30.06,NE,45,0.9,1.1,56,0.00,,CLR,0.00,VWS V14.00,2013-05-20 21:48:00,
2013-05-20 14:49:00,64.9,48.9,30.06,NNW,338,0.0,1.1,56,0.00,,CLR,0.00,VWS V14.00,2013-05-20 21:49:00,
2013-05-20 14:50:00,64.9,48.9,30.06,North,0,0.0,1.1,56,0.00,,CLR,0.00,VWS V14.00,2013-05-20 21:50:00,
2013-05-20 14:52:00,64.9,48.9,30.06,NNW,338,0.0,0.9,56,0.00,,CLR,0.00,VWS V14.00,2013-05-20 21:52:00,
2013-05-20 14:53:00,64.9,48.4,30.06,ENE,68,0.0,0.9,55,0.00,,CLR,0.00,VWS V14.00,2013-05-20 21:53:00,
2013-05-20 14:54:00,64.9,48.4,30.06,WNW,292,0.0,0.9,55,0.00,,CLR,0.00,VWS V14.00,2013-05-20 21:54:00,
2013-05-20 14:55:00,64.9,48.9,30.06,WNW,292,0.0,0.9,56,0.00,,CLR,0.00,VWS V14.00,2013-05-20 21:55:00,
2013-05-20 14:57:00,65.1,48.6,30.06,NW,315,2.0,2.5,55,0.00,,CLR,0.00,VWS V14.00,2013-05-20 21:57:00,
2013-05-20 14:58:00,65.3,48.2,30.06,WNW,292,0.0,2.5,54,0.00,,CLR,0.00,VWS V14.00,2013-05-20 21:58:00,
2013-05-20 14:59:00,65.3,48.2,30.06,NNW,338,1.1,2.5,54,0.00,,CLR,0.00,VWS V14.00,2013-05-20 21:59:00,
2013-05-20 15:00:00,65.3,48.2,30.06,NNW,338,1.1,2.5,54,0.00,,CLR,0.00,VWS V14.00,2013-05-20 22:00:00,
2013-05-20 15:03:00,65.5,48.9,30.06,WNW,292,2.2,2.5,55,0.00,,CLR,0.00,VWS V14.00,2013-05-20 22:03:00,
2013-05-20 15:04:00,65.5,48.4,30.06,WNW,292,1.3,2.5,54,0.00,,CLR,0.00,VWS V14.00,2013-05-20 22:04:00,
2013-05-20 15:05:00,65.5,48.4,30.06,WNW,292,1.3,2.5,54,0.00,,CLR,0.00,VWS V14.00,2013-05-20 22:05:00,
2013-05-20 15:08:00,65.5,48.4,30.06,WNW,292,0.0,2.5,54,0.00,,CLR,0.00,VWS V14.00,2013-05-20 22:08:00,
2013-05-20 15:09:00,65.5,48.4,30.06,WNW,292,0.0,2.5,54,0.00,,CLR,0.00,VWS V14.00,2013-05-20 22:09:00,
2013-05-20 15:10:00,65.5,48.4,30.06,WNW,292,0.0,2.5,54,0.00,,CLR,0.00,VWS V14.00,2013-05-20 22:10:00,
2013-05-20 15:13:00,65.7,48.6,30.06,West,270,1.3,2.5,54,0.00,,CLR,0.00,VWS V14.00,2013-05-20 22:13:00,
2013-05-20 15:14:00,65.7,48.6,30.06,WNW,292,0.0,2.5,54,0.00,,CLR,0.00,VWS V14.00,2013-05-20 22:14:00,
2013-05-20 15:15:00,65.7,48.6,30.06,NNE,22,0.0,2.5,54,0.00,,CLR,0.00,VWS V14.00,2013-05-20 22:15:00,
2013-05-20 15:18:00,65.5,46.9,30.06,NNW,338,0.0,2.5,51,0.00,,CLR,0.00,VWS V14.00,2013-05-20 22:18:00,
2013-05-20 15:19:00,65.5,46.9,30.06,NNW,338,0.0,2.5,51,0.00,,CLR,0.00,VWS V14.00,2013-05-20 22:19:00,
2013-05-20 15:20:00,65.5,46.9,30.06,NNW,338,0.0,2.5,51,0.00,,CLR,0.00,VWS V14.00,2013-05-20 22:20:00,
2013-05-20 15:23:00,65.5,46.9,30.06,NNW,338,0.0,2.5,51,0.00,,CLR,0.00,VWS V14.00,2013-05-20 22:23:00,
2013-05-20 15:24:00,65.5,46.9,30.06,NNW,338,0.0,2.5,51,0.00,,CLR,0.00,VWS V14.00,2013-05-20 22:24:00,
2013-05-20 15:25:00,65.5,47.4,30.06,NNW,338,0.0,2.5,52,0.00,,CLR,0.00,VWS V14.00,2013-05-20 22:25:00,
2013-05-20 15:28:00,65.5,47.4,30.06,NNW,338,0.0,1.3,52,0.00,,CLR,0.00,VWS V14.00,2013-05-20 22:28:00,
2013-05-20 15:29:00,65.5,47.4,30.06,NNW,338,0.0,1.3,52,0.00,,CLR,0.00,VWS V14.00,2013-05-20 22:29:00,
2013-05-20 15:30:00,65.5,47.4,30.06,NNW,338,0.0,1.3,52,0.00,,CLR,0.00,VWS V14.00,2013-05-20 22:30:00,
2013-05-20 15:33:00,65.8,48.8,30.03,NW,315,0.9,0.9,54,0.00,,CLR,0.00,VWS V14.00,2013-05-20 22:33:00,
2013-05-20 15:34:00,66.0,48.9,30.03,NW,315,0.0,0.9,54,0.00,,CLR,0.00,VWS V14.00,2013-05-20 22:34:00,
2013-05-20 15:35:00,66.0,48.9,30.03,NW,315,0.0,0.9,54,0.00,,CLR,0.00,VWS V14.00,2013-05-20 22:35:00,
2013-05-20 15:36:00,66.0,48.4,30.03,WNW,292,0.0,0.9,53,0.00,,CLR,0.00,VWS V14.00,2013-05-20 22:36:00,
2013-05-20 15:38:00,66.0,48.4,30.03,NW,315,0.0,0.9,53,0.00,,CLR,0.00,VWS V14.00,2013-05-20 22:38:00,
2013-05-20 15:39:00,66.0,48.4,30.03,NNW,338,0.0,0.9,53,0.00,,CLR,0.00,VWS V14.00,2013-05-20 22:39:00,
2013-05-20 15:40:00,66.0,48.4,30.03,NNW,338,0.0,0.9,53,0.00,,CLR,0.00,VWS V14.00,2013-05-20 22:40:00,
2013-05-20 15:41:00,66.2,48.6,30.03,NW,315,0.0,0.9,53,0.00,,CLR,0.00,VWS V14.00,2013-05-20 22:41:00,
2013-05-20 15:43:00,66.4,48.8,30.03,WNW,292,0.0,0.9,53,0.00,,CLR,0.00,VWS V14.00,2013-05-20 22:43:00,
2013-05-20 15:45:00,66.4,49.2,30.03,NW,315,0.0,0.9,54,0.00,,CLR,0.00,VWS V14.00,2013-05-20 22:45:00,
2013-05-20 15:46:00,66.4,49.2,30.03,NNW,338,0.0,0.9,54,0.00,,CLR,0.00,VWS V14.00,2013-05-20 22:46:00,
2013-05-20 15:48:00,66.4,48.8,30.03,WNW,292,1.1,1.1,53,0.00,,CLR,0.00,VWS V14.00,2013-05-20 22:48:00,
2013-05-20 15:50:00,66.2,48.6,30.03,WNW,292,0.9,1.1,53,0.00,,CLR,0.00,VWS V14.00,2013-05-20 22:50:00,
2013-05-20 15:51:00,66.2,48.6,30.03,NW,315,0.0,1.1,53,0.00,,CLR,0.00,VWS V14.00,2013-05-20 22:51:00,
2013-05-20 15:53:00,66.6,48.9,30.03,NNW,338,0.9,1.3,53,0.00,,CLR,0.00,VWS V14.00,2013-05-20 22:53:00,
2013-05-20 15:55:00,66.6,48.9,30.03,ENE,68,0.0,1.3,53,0.00,,CLR,0.00,VWS V14.00,2013-05-20 22:55:00,
2013-05-20 15:56:00,66.6,49.4,30.03,NNW,338,0.0,1.3,54,0.00,,CLR,0.00,VWS V14.00,2013-05-20 22:56:00,
2013-05-20 15:58:00,66.7,49.6,30.03,WNW,292,1.1,1.3,54,0.00,,CLR,0.00,VWS V14.00,2013-05-20 22:58:00,
2013-05-20 16:00:00,66.7,49.6,30.03,NW,315,0.0,1.3,54,0.00,,CLR,0.00,VWS V14.00,2013-05-20 23:00:00,
2013-05-20 16:01:00,66.9,50.2,30.03,NW,315,0.0,1.3,55,0.00,,CLR,0.00,VWS V14.00,2013-05-20 23:01:00,
2013-05-20 16:03:00,66.9,49.8,30.03,NNE,22,0.0,1.3,54,0.00,,CLR,0.00,VWS V14.00,2013-05-20 23:03:00,
2013-05-20 16:05:00,66.7,49.6,30.03,NNW,338,0.0,1.3,54,0.00,,CLR,0.00,VWS V14.00,2013-05-20 23:05:00,
2013-05-20 16:06:00,66.7,49.6,30.03,NNW,338,0.0,1.3,54,0.00,,CLR,0.00,VWS V14.00,2013-05-20 23:06:00,
2013-05-20 16:08:00,66.9,49.8,30.03,NNW,338,0.0,1.3,54,0.00,,CLR,0.00,VWS V14.00,2013-05-20 23:08:00,
2013-05-20 16:10:00,67.1,49.9,30.03,NNW,338,0.0,1.1,54,0.00,,CLR,0.00,VWS V14.00,2013-05-20 23:10:00,
2013-05-20 16:11:00,67.1,49.9,30.03,NNW,338,0.0,1.1,54,0.00,,CLR,0.00,VWS V14.00,2013-05-20 23:11:00,
2013-05-20 16:13:00,67.3,50.6,30.03,NW,315,0.0,1.1,55,0.00,,CLR,0.00,VWS V14.00,2013-05-20 23:13:00,
2013-05-20 16:15:00,67.5,50.2,30.03,WNW,292,0.0,1.1,54,0.00,,CLR,0.00,VWS V14.00,2013-05-20 23:15:00,
2013-05-20 16:16:00,67.6,50.4,30.03,NW,315,0.0,1.1,54,0.00,,CLR,0.00,VWS V14.00,2013-05-20 23:16:00,
2013-05-20 16:18:00,67.6,50.4,30.00,NW,315,0.0,1.1,54,0.00,,CLR,0.00,VWS V14.00,2013-05-20 23:18:00,
2013-05-20 16:20:00,67.6,50.4,30.00,WNW,292,0.0,1.1,54,0.00,,CLR,0.00,VWS V14.00,2013-05-20 23:20:00,
2013-05-20 16:21:00,67.6,50.4,30.00,NNW,338,0.0,1.1,54,0.00,,CLR,0.00,VWS V14.00,2013-05-20 23:21:00,
2013-05-20 16:23:00,67.6,50.4,30.00,NNW,338,0.0,1.1,54,0.00,,CLR,0.00,VWS V14.00,2013-05-20 23:23:00,
2013-05-20 16:25:00,67.6,49.9,30.00,NNW,338,0.0,1.1,53,0.00,,CLR,0.00,VWS V14.00,2013-05-20 23:25:00,
2013-05-20 16:26:00,67.6,49.9,30.00,NW,315,0.0,0.9,53,0.00,,CLR,0.00,VWS V14.00,2013-05-20 23:26:00,
2013-05-20 16:28:00,67.8,50.6,30.00,NW,315,0.0,0.9,54,0.00,,CLR,0.00,VWS V14.00,2013-05-20 23:28:00,
2013-05-20 16:30:00,67.8,50.1,30.00,WNW,292,0.0,0.9,53,0.00,,CLR,0.00,VWS V14.00,2013-05-20 23:30:00,
2013-05-20 16:31:00,67.8,50.1,30.00,WNW,292,0.0,0.9,53,0.00,,CLR,0.00,VWS V14.00,2013-05-20 23:31:00,
2013-05-20 16:32:00,67.8,50.1,30.00,NW,315,0.0,0.9,53,0.00,,CLR,0.00,VWS V14.00,2013-05-20 23:32:00,
2013-05-20 16:33:00,67.8,50.6,30.00,WNW,292,1.6,1.6,54,0.00,,CLR,0.00,VWS V14.00,2013-05-20 23:33:00,
2013-05-20 16:35:00,67.8,50.1,30.00,WNW,292,0.0,1.6,53,0.00,,CLR,0.00,VWS V14.00,2013-05-20 23:35:00,
2013-05-20 16:36:00,67.8,50.1,30.00,WNW,292,0.0,1.6,53,0.00,,CLR,0.00,VWS V14.00,2013-05-20 23:36:00,
2013-05-20 16:37:00,67.8,50.1,30.00,WNW,292,0.0,1.6,53,0.00,,CLR,0.00,VWS V14.00,2013-05-20 23:37:00,
2013-05-20 16:39:00,68.0,50.2,30.00,NNE,22,0.0,1.6,53,0.00,,CLR,0.00,VWS V14.00,2013-05-20 23:39:00,
2013-05-20 16:40:00,68.0,50.2,30.00,North,0,0.0,1.6,53,0.00,,CLR,0.00,VWS V14.00,2013-05-20 23:40:00,
2013-05-20 16:41:00,68.0,50.2,30.00,North,0,0.0,1.6,53,0.00,,CLR,0.00,VWS V14.00,2013-05-20 23:41:00,
2013-05-20 16:42:00,68.0,49.7,30.00,NW,315,0.0,1.6,52,0.00,,CLR,0.00,VWS V14.00,2013-05-20 23:42:00,
2013-05-20 16:44:00,67.8,49.6,30.00,WNW,292,0.0,1.6,52,0.00,,CLR,0.00,VWS V14.00,2013-05-20 23:44:00,
2013-05-20 16:45:00,67.8,49.6,30.00,NNW,338,0.0,1.6,52,0.00,,CLR,0.00,VWS V14.00,2013-05-20 23:45:00,
2013-05-20 16:46:00,67.8,49.6,30.00,NW,315,0.0,1.6,52,0.00,,CLR,0.00,VWS V14.00,2013-05-20 23:46:00,
2013-05-20 16:47:00,67.6,48.9,30.00,NW,315,0.0,1.6,51,0.00,,CLR,0.00,VWS V14.00,2013-05-20 23:47:00,
2013-05-20 16:49:00,67.6,48.9,30.00,NW,315,0.0,1.6,51,0.00,,CLR,0.00,VWS V14.00,2013-05-20 23:49:00,
2013-05-20 16:50:00,67.6,48.9,30.00,NNW,338,0.0,0.9,51,0.00,,CLR,0.00,VWS V14.00,2013-05-20 23:50:00,
2013-05-20 16:51:00,67.6,48.9,30.00,NNW,338,0.0,0.9,51,0.00,,CLR,0.00,VWS V14.00,2013-05-20 23:51:00,
2013-05-20 16:52:00,67.6,48.9,30.00,WNW,292,0.0,0.9,51,0.00,,CLR,0.00,VWS V14.00,2013-05-20 23:52:00,
2013-05-20 16:54:00,67.8,49.6,30.00,WNW,292,0.0,0.9,52,0.00,,CLR,0.00,VWS V14.00,2013-05-20 23:54:00,
2013-05-20 16:55:00,67.8,49.6,30.00,WNW,292,0.0,0.9,52,0.00,,CLR,0.00,VWS V14.00,2013-05-20 23:55:00,
2013-05-20 16:56:00,67.8,49.6,30.00,WNW,292,0.9,0.9,52,0.00,,CLR,0.00,VWS V14.00,2013-05-20 23:56:00,
2013-05-20 16:57:00,67.8,49.6,30.00,WNW,292,2.5,2.5,52,0.00,,CLR,0.00,VWS V14.00,2013-05-20 23:57:00,
2013-05-20 16:59:00,67.8,49.0,30.00,WNW,292,0.0,2.5,51,0.00,,CLR,0.00,VWS V14.00,2013-05-20 23:59:00,
2013-05-20 17:00:00,67.8,48.5,30.00,NNW,338,0.0,2.5,50,0.00,,CLR,0.00,VWS V14.00,2013-05-21 00:00:00,
2013-05-20 17:01:00,67.8,48.5,30.00,NNW,338,0.0,2.5,50,0.00,,CLR,0.00,VWS V14.00,2013-05-21 00:01:00,
2013-05-20 17:02:00,67.8,49.0,30.00,NW,315,0.0,2.5,51,0.00,,CLR,0.00,VWS V14.00,2013-05-21 00:02:00,
2013-05-20 17:04:00,67.8,49.6,29.97,WNW,292,0.0,2.5,52,0.00,,CLR,0.00,VWS V14.00,2013-05-21 00:04:00,
2013-05-20 17:05:00,67.8,49.6,29.97,NNE,22,0.0,2.5,52,0.00,,CLR,0.00,VWS V14.00,2013-05-21 00:05:00,
2013-05-20 17:06:00,68.0,49.2,29.97,NNW,338,0.0,2.5,51,0.00,,CLR,0.00,VWS V14.00,2013-05-21 00:06:00,
2013-05-20 17:07:00,68.0,49.2,29.97,NNW,338,0.0,2.5,51,0.00,,CLR,0.00,VWS V14.00,2013-05-21 00:07:00,
2013-05-20 17:09:00,68.0,49.7,29.97,NW,315,0.0,2.5,52,0.00,,CLR,0.00,VWS V14.00,2013-05-21 00:09:00,
2013-05-20 17:10:00,68.0,49.7,29.97,WNW,292,0.0,2.5,52,0.00,,CLR,0.00,VWS V14.00,2013-05-21 00:10:00,
2013-05-20 17:11:00,68.0,49.7,29.97,WNW,292,0.0,2.5,52,0.00,,CLR,0.00,VWS V14.00,2013-05-21 00:11:00,
2013-05-20 17:12:00,68.0,49.7,29.97,WNW,292,0.0,2.5,52,0.00,,CLR,0.00,VWS V14.00,2013-05-21 00:12:00,
2013-05-20 17:14:00,68.0,49.2,29.97,NNW,338,2.0,2.5,51,0.00,,CLR,0.00,VWS V14.00,2013-05-21 00:14:00,
2013-05-20 17:15:00,67.8,49.6,29.97,NNW,338,0.0,2.0,52,0.00,,CLR,0.00,VWS V14.00,2013-05-21 00:15:00,
2013-05-20 17:16:00,67.8,49.6,29.97,NNW,338,0.0,2.0,52,0.00,,CLR,0.00,VWS V14.00,2013-05-21 00:16:00,
2013-05-20 17:17:00,68.0,49.7,29.97,NE,45,3.4,3.4,52,0.00,,CLR,0.00,VWS V14.00,2013-05-21 00:17:00,
2013-05-20 17:19:00,68.0,49.7,29.97,NNW,338,0.9,3.4,52,0.00,,CLR,0.00,VWS V14.00,2013-05-21 00:19:00,
2013-05-20 17:21:00,68.0,49.7,29.97,NNW,338,1.3,3.4,52,0.00,,CLR,0.00,VWS V14.00,2013-05-21 00:21:00,
2013-05-20 17:22:00,68.0,49.2,29.97,NNW,338,0.0,3.4,51,0.00,,CLR,0.00,VWS V14.00,2013-05-21 00:22:00,
2013-05-20 17:24:00,67.8,49.0,29.97,East,90,2.2,3.4,51,0.00,,CLR,0.00,VWS V14.00,2013-05-21 00:24:00,
2013-05-20 17:26:00,67.8,49.0,29.97,West,270,2.5,3.4,51,0.00,,CLR,0.00,VWS V14.00,2013-05-21 00:26:00,
2013-05-20 17:27:00,67.8,49.0,29.97,NNW,338,1.3,3.4,51,0.00,,CLR,0.00,VWS V14.00,2013-05-21 00:27:00,
2013-05-20 17:29:00,67.8,49.0,29.97,WNW,292,1.6,3.4,51,0.00,,CLR,0.00,VWS V14.00,2013-05-21 00:29:00,
2013-05-20 17:31:00,67.8,49.0,29.97,NNW,338,0.0,3.4,51,0.00,,CLR,0.00,VWS V14.00,2013-05-21 00:31:00,
2013-05-20 17:32:00,68.0,49.7,29.97,ENE,68,0.0,3.4,52,0.00,,CLR,0.00,VWS V14.00,2013-05-21 00:32:00,
2013-05-20 17:34:00,68.0,49.7,29.97,WNW,292,0.0,2.9,52,0.00,,CLR,0.00,VWS V14.00,2013-05-21 00:34:00,
2013-05-20 17:36:00,68.0,49.2,29.97,North,0,1.3,2.9,51,0.00,,CLR,0.00,VWS V14.00,2013-05-21 00:36:00,
2013-05-20 17:38:00,68.0,49.2,29.97,WNW,292,0.0,2.9,51,0.00,,CLR,0.00,VWS V14.00,2013-05-21 00:38:00,
2013-05-20 17:39:00,68.0,49.2,29.97,NE,45,0.0,2.5,51,0.00,,CLR,0.00,VWS V14.00,2013-05-21 00:39:00,
2013-05-20 17:41:00,68.0,49.2,29.97,NNW,338,0.0,2.5,51,0.00,,CLR,0.00,VWS V14.00,2013-05-21 00:41:00,
2013-05-20 17:43:00,68.0,49.7,29.97,WSW,248,1.1,3.1,52,0.00,,CLR,0.00,VWS V14.00,2013-05-21 00:43:00,
2013-05-20 17:44:00,68.0,49.2,29.97,WNW,292,0.9,3.1,51,0.00,,CLR,0.00,VWS V14.00,2013-05-21 00:44:00,
2013-05-20 17:46:00,68.0,49.2,29.97,WNW,292,0.0,3.1,51,0.00,,CLR,0.00,VWS V14.00,2013-05-21 00:46:00,
2013-05-20 17:48:00,67.8,49.6,29.97,WSW,248,0.0,3.1,52,0.00,,CLR,0.00,VWS V14.00,2013-05-21 00:48:00,
2013-05-20 17:49:00,67.8,49.6,29.97,West,270,1.6,3.1,52,0.00,,CLR,0.00,VWS V14.00,2013-05-21 00:49:00,
2013-05-20 17:51:00,67.8,49.6,29.97,NW,315,0.0,3.1,52,0.00,,CLR,0.00,VWS V14.00,2013-05-21 00:51:00,
2013-05-20 17:53:00,67.8,49.6,29.97,NW,315,0.0,3.1,52,0.00,,CLR,0.00,VWS V14.00,2013-05-21 00:53:00,
2013-05-20 17:54:00,67.8,49.6,29.97,WNW,292,0.0,3.1,52,0.00,,CLR,0.00,VWS V14.00,2013-05-21 00:54:00,
2013-05-20 17:56:00,67.8,49.6,29.97,WNW,292,0.0,3.1,52,0.00,,CLR,0.00,VWS V14.00,2013-05-21 00:56:00,
2013-05-20 17:58:00,67.6,48.9,29.97,WSW,248,0.0,3.1,51,0.00,,CLR,0.00,VWS V14.00,2013-05-21 00:58:00,
2013-05-20 18:00:00,67.8,49.6,29.97,NW,315,1.1,3.1,52,0.00,,CLR,0.00,VWS V14.00,2013-05-21 01:00:00,
2013-05-20 18:01:00,67.6,49.4,29.97,North,0,0.0,2.0,52,0.00,,CLR,0.00,VWS V14.00,2013-05-21 01:01:00,
2013-05-20 18:02:00,67.6,49.4,29.97,NNW,338,0.0,2.0,52,0.00,,CLR,0.00,VWS V14.00,2013-05-21 01:02:00,
2013-05-20 18:03:00,67.6,49.4,29.94,ENE,68,0.0,2.0,52,0.00,,CLR,0.00,VWS V14.00,2013-05-21 01:03:00,
2013-05-20 18:05:00,67.5,49.2,29.94,NE,45,0.0,2.0,52,0.00,,CLR,0.00,VWS V14.00,2013-05-21 01:05:00,
2013-05-20 18:06:00,67.5,49.2,29.94,West,270,2.2,2.2,52,0.00,,CLR,0.00,VWS V14.00,2013-05-21 01:06:00,
2013-05-20 18:07:00,67.5,49.2,29.94,NNW,338,0.0,2.2,52,0.00,,CLR,0.00,VWS V14.00,2013-05-21 01:07:00,
2013-05-20 18:08:00,67.5,49.8,29.94,WNW,292,1.1,2.2,53,0.00,,CLR,0.00,VWS V14.00,2013-05-21 01:08:00,
2013-05-20 18:10:00,67.5,49.8,29.94,WNW,292,1.1,2.2,53,0.00,,CLR,0.00,VWS V14.00,2013-05-21 01:10:00,
2013-05-20 18:11:00,67.5,48.7,29.94,WNW,292,1.6,2.2,51,0.00,,CLR,0.00,VWS V14.00,2013-05-21 01:11:00,
2013-05-20 18:12:00,67.5,48.7,29.94,NNW,338,0.0,2.2,51,0.00,,CLR,0.00,VWS V14.00,2013-05-21 01:12:00,
2013-05-20 18:14:00,67.3,49.1,29.94,WNW,292,0.0,2.2,52,0.00,,CLR,0.00,VWS V14.00,2013-05-21 01:14:00,
2013-05-20 18:15:00,67.1,48.9,29.94,NNW,338,0.0,2.2,52,0.00,,CLR,0.00,VWS V14.00,2013-05-21 01:15:00,
2013-05-20 18:16:00,67.1,49.4,29.94,East,90,1.6,2.2,53,0.00,,CLR,0.00,VWS V14.00,2013-05-21 01:16:00,
2013-05-20 18:17:00,67.1,49.4,29.94,NNW,338,0.0,2.2,53,0.00,,CLR,0.00,VWS V14.00,2013-05-21 01:17:00,
2013-05-20 18:19:00,67.1,49.4,29.94,NE,45,0.0,2.2,53,0.00,,CLR,0.00,VWS V14.00,2013-05-21 01:19:00,
2013-05-20 18:20:00,67.1,48.9,29.94,NNE,22,0.0,2.2,52,0.00,,CLR,0.00,VWS V14.00,2013-05-21 01:20:00,
2013-05-20 18:21:00,67.1,48.9,29.94,WNW,292,0.0,2.2,52,0.00,,CLR,0.00,VWS V14.00,2013-05-21 01:21:00,
2013-05-20 18:22:00,66.9,48.7,29.94,WNW,292,0.0,2.2,52,0.00,,CLR,0.00,VWS V14.00,2013-05-21 01:22:00,
2013-05-20 18:24:00,66.9,49.2,29.94,ESE,112,0.0,1.6,53,0.00,,CLR,0.00,VWS V14.00,2013-05-21 01:24:00,
2013-05-20 18:25:00,66.9,49.2,29.94,WNW,292,0.0,1.6,53,0.00,,CLR,0.00,VWS V14.00,2013-05-21 01:25:00,
2013-05-20 18:26:00,66.9,49.2,29.94,WNW,292,0.0,1.6,53,0.00,,CLR,0.00,VWS V14.00,2013-05-21 01:26:00,
2013-05-20 18:27:00,66.7,49.1,29.94,WNW,292,2.2,2.2,53,0.00,,CLR,0.00,VWS V14.00,2013-05-21 01:27:00,
2013-05-20 18:29:00,66.7,49.1,29.94,NNE,22,3.4,3.4,53,0.00,,CLR,0.00,VWS V14.00,2013-05-21 01:29:00,
2013-05-20 18:30:00,66.7,49.1,29.94,NW,315,0.0,3.4,53,0.00,,CLR,0.00,VWS V14.00,2013-05-21 01:30:00,
2013-05-20 18:31:00,66.6,48.9,29.94,NW,315,0.0,3.4,53,0.00,,CLR,0.00,VWS V14.00,2013-05-21 01:31:00,
2013-05-20 18:32:00,66.6,48.9,29.94,NW,315,0.0,3.4,53,0.00,,CLR,0.00,VWS V14.00,2013-05-21 01:32:00,
2013-05-20 18:34:00,66.6,48.9,29.94,NNW,338,0.9,3.4,53,0.00,,CLR,0.00,VWS V14.00,2013-05-21 01:34:00,
2013-05-20 18:35:00,66.4,48.8,29.94,WNW,292,0.0,3.4,53,0.00,,CLR,0.00,VWS V14.00,2013-05-21 01:35:00,
2013-05-20 18:36:00,66.4,48.8,29.94,East,90,2.5,3.4,53,0.00,,CLR,0.00,VWS V14.00,2013-05-21 01:36:00,
2013-05-20 18:37:00,66.4,49.2,29.94,NNW,338,0.0,3.4,54,0.00,,CLR,0.00,VWS V14.00,2013-05-21 01:37:00,
2013-05-20 18:39:00,66.4,49.2,29.94,NW,315,0.0,3.4,54,0.00,,CLR,0.00,VWS V14.00,2013-05-21 01:39:00,
2013-05-20 18:40:00,66.4,49.2,29.94,NNW,338,0.0,3.4,54,0.00,,CLR,0.00,VWS V14.00,2013-05-21 01:40:00,
2013-05-20 18:41:00,66.2,49.1,29.94,WNW,292,0.0,3.4,54,0.00,,CLR,0.00,VWS V14.00,2013-05-21 01:41:00,
2013-05-20 18:42:00,66.2,49.1,29.94,NNE,22,0.0,3.4,54,0.00,,CLR,0.00,VWS V14.00,2013-05-21 01:42:00,
2013-05-20 18:44:00,66.2,49.1,29.94,East,90,0.0,3.4,54,0.00,,CLR,0.00,VWS V14.00,2013-05-21 01:44:00,
2013-05-20 18:45:00,66.2,49.1,29.94,NNW,338,0.0,3.4,54,0.00,,CLR,0.00,VWS V14.00,2013-05-21 01:45:00,
2013-05-20 18:47:00,66.0,49.4,29.94,East,90,0.0,2.5,55,0.00,,CLR,0.00,VWS V14.00,2013-05-21 01:47:00,
2013-05-20 18:49:00,66.0,49.4,29.94,ENE,68,0.0,2.5,55,0.00,,CLR,0.00,VWS V14.00,2013-05-21 01:49:00,
2013-05-20 18:50:00,65.8,49.2,29.94,ENE,68,0.0,2.5,55,0.00,,CLR,0.00,VWS V14.00,2013-05-21 01:50:00,
2013-05-20 18:52:00,65.8,49.2,29.94,NW,315,0.0,2.5,55,0.00,,CLR,0.00,VWS V14.00,2013-05-21 01:52:00,
2013-05-20 18:53:00,65.8,49.2,29.94,NNE,22,0.0,0.9,55,0.00,,CLR,0.00,VWS V14.00,2013-05-21 01:53:00,
2013-05-20 18:54:00,65.8,49.2,29.94,NNW,338,0.0,0.9,55,0.00,,CLR,0.00,VWS V14.00,2013-05-21 01:54:00,
2013-05-20 18:55:00,65.7,49.1,29.94,NNE,22,0.0,0.9,55,0.00,,CLR,0.00,VWS V14.00,2013-05-21 01:55:00,
2013-05-20 18:57:00,65.8,49.2,29.94,NNE,22,0.0,0.9,55,0.00,,CLR,0.00,VWS V14.00,2013-05-21 01:57:00,
2013-05-20 18:58:00,65.8,49.2,29.94,NNE,22,0.0,0.9,55,0.00,,CLR,0.00,VWS V14.00,2013-05-21 01:58:00,
2013-05-20 18:59:00,66.0,49.4,29.94,NNW,338,0.0,0.9,55,0.00,,CLR,0.00,VWS V14.00,2013-05-21 01:59:00,
2013-05-20 19:01:00,66.0,49.4,29.94,NE,45,0.0,0.9,55,0.00,,CLR,0.00,VWS V14.00,2013-05-21 02:01:00,
2013-05-20 19:02:00,66.0,49.9,29.94,ENE,68,0.0,0.9,56,0.00,,CLR,0.00,VWS V14.00,2013-05-21 02:02:00,
2013-05-20 19:03:00,66.0,49.9,29.94,NNE,22,0.0,0.0,56,0.00,,CLR,0.00,VWS V14.00,2013-05-21 02:03:00,
2013-05-20 19:05:00,66.0,49.9,29.94,NNE,22,0.0,0.0,56,0.00,,CLR,0.00,VWS V14.00,2013-05-21 02:05:00,
2013-05-20 19:06:00,66.2,50.1,29.94,NNW,338,0.0,0.0,56,0.00,,CLR,0.00,VWS V14.00,2013-05-21 02:06:00,
2013-05-20 19:07:00,66.2,50.1,29.94,ENE,68,0.0,0.0,56,0.00,,CLR,0.00,VWS V14.00,2013-05-21 02:07:00,
2013-05-20 19:08:00,66.0,50.4,29.94,NW,315,0.0,0.0,57,0.00,,CLR,0.00,VWS V14.00,2013-05-21 02:08:00,
2013-05-20 19:10:00,66.0,50.4,29.94,NNE,22,0.0,0.0,57,0.00,,CLR,0.00,VWS V14.00,2013-05-21 02:10:00,
2013-05-20 19:11:00,66.0,50.4,29.94,WNW,292,0.0,0.0,57,0.00,,CLR,0.00,VWS V14.00,2013-05-21 02:11:00,
2013-05-20 19:12:00,66.0,49.9,29.94,WNW,292,0.9,0.9,56,0.00,,CLR,0.00,VWS V14.00,2013-05-21 02:12:00,
2013-05-20 19:13:00,66.0,49.9,29.94,WNW,292,0.0,0.9,56,0.00,,CLR,0.00,VWS V14.00,2013-05-21 02:13:00,
2013-05-20 19:15:00,66.0,49.9,29.94,WNW,292,0.0,0.9,56,0.00,,CLR,0.00,VWS V14.00,2013-05-21 02:15:00,
2013-05-20 19:16:00,66.0,49.4,29.94,WNW,292,0.0,0.9,55,0.00,,CLR,0.00,VWS V14.00,2013-05-21 02:16:00,
2013-05-20 19:17:00,65.8,49.7,29.94,NNE,22,0.0,0.9,56,0.00,,CLR,0.00,VWS V14.00,2013-05-21 02:17:00,
2013-05-20 19:18:00,65.8,49.7,29.94,NNE,22,0.0,0.9,56,0.00,,CLR,0.00,VWS V14.00,2013-05-21 02:18:00,
2013-05-20 19:20:00,65.8,49.2,29.94,WNW,292,0.0,1.1,55,0.00,,CLR,0.00,VWS V14.00,2013-05-21 02:20:00,
2013-05-20 19:21:00,65.5,48.9,29.94,WNW,292,0.0,1.1,55,0.00,,CLR,0.00,VWS V14.00,2013-05-21 02:21:00,
2013-05-20 19:22:00,65.5,48.9,29.94,NW,315,0.0,1.1,55,0.00,,CLR,0.00,VWS V14.00,2013-05-21 02:22:00,
2013-05-20 19:23:00,65.3,49.2,29.94,NW,315,0.0,1.1,56,0.00,,CLR,0.00,VWS V14.00,2013-05-21 02:23:00,
2013-05-20 19:25:00,65.1,48.6,29.94,North,0,0.0,2.7,55,0.00,,CLR,0.00,VWS V14.00,2013-05-21 02:25:00,
2013-05-20 19:26:00,64.8,48.2,29.94,WNW,292,0.0,2.7,55,0.00,,CLR,0.00,VWS V14.00,2013-05-21 02:26:00,
2013-05-20 19:27:00,64.8,48.2,29.94,WNW,292,0.0,2.7,55,0.00,,CLR,0.00,VWS V14.00,2013-05-21 02:27:00,
2013-05-20 19:28:00,64.8,48.2,29.94,WNW,292,0.0,2.7,55,0.00,,CLR,0.00,VWS V14.00,2013-05-21 02:28:00,
2013-05-20 19:30:00,64.4,48.4,29.94,North,0,0.9,2.7,56,0.00,,CLR,0.00,VWS V14.00,2013-05-21 02:30:00,
2013-05-20 19:31:00,64.2,48.2,29.94,WNW,292,0.0,2.7,56,0.00,,CLR,0.00,VWS V14.00,2013-05-21 02:31:00,
2013-05-20 19:32:00,64.2,48.2,29.94,NNE,22,0.0,2.7,56,0.00,,CLR,0.00,VWS V14.00,2013-05-21 02:32:00,
2013-05-20 19:33:00,64.2,48.2,29.94,NNE,22,0.0,2.7,56,0.00,,CLR,0.00,VWS V14.00,2013-05-21 02:33:00,
2013-05-20 19:35:00,64.0,48.0,29.94,WNW,292,0.0,2.7,56,0.00,,CLR,0.00,VWS V14.00,2013-05-21 02:35:00,
2013-05-20 19:36:00,63.9,47.9,29.94,NNE,22,0.0,2.7,56,0.00,,CLR,0.00,VWS V14.00,2013-05-21 02:36:00,
2013-05-20 19:37:00,63.7,47.7,29.94,NE,45,0.0,2.7,56,0.00,,CLR,0.00,VWS V14.00,2013-05-21 02:37:00,
2013-05-20 19:38:00,63.7,47.7,29.94,NE,45,0.0,2.7,56,0.00,,CLR,0.00,VWS V14.00,2013-05-21 02:38:00,
2013-05-20 19:40:00,63.5,47.5,29.94,WSW,248,1.6,2.7,56,0.00,,CLR,0.00,VWS V14.00,2013-05-21 02:40:00,
2013-05-20 19:42:00,63.1,47.2,29.94,NW,315,0.9,2.9,56,0.00,,CLR,0.00,VWS V14.00,2013-05-21 02:42:00,
2013-05-20 19:43:00,63.1,47.2,29.94,NNE,22,0.0,2.9,56,0.00,,CLR,0.00,VWS V14.00,2013-05-21 02:43:00,
2013-05-20 19:46:00,63.1,47.2,29.94,NE,45,0.0,2.9,56,0.00,,CLR,0.00,VWS V14.00,2013-05-21 02:46:00,
2013-05-20 19:47:00,63.0,47.0,29.94,SW,225,0.0,2.9,56,0.00,,CLR,0.00,VWS V14.00,2013-05-21 02:47:00,
2013-05-20 19:48:00,63.0,47.0,29.91,West,270,0.0,2.9,56,0.00,,CLR,0.00,VWS V14.00,2013-05-21 02:48:00,
2013-05-20 19:51:00,62.6,46.7,29.91,ENE,68,2.2,2.9,56,0.00,,CLR,0.00,VWS V14.00,2013-05-21 02:51:00,
2013-05-20 19:52:00,62.4,47.0,29.91,WNW,292,0.0,2.9,57,0.00,,CLR,0.00,VWS V14.00,2013-05-21 02:52:00,
2013-05-20 19:53:00,62.4,47.0,29.91,WSW,248,0.0,2.9,57,0.00,,CLR,0.00,VWS V14.00,2013-05-21 02:53:00,
2013-05-20 19:56:00,62.1,46.7,29.91,NNW,338,2.5,2.9,57,0.00,,CLR,0.00,VWS V14.00,2013-05-21 02:56:00,
2013-05-20 19:57:00,62.1,46.7,29.91,WNW,292,0.0,2.9,57,0.00,,CLR,0.00,VWS V14.00,2013-05-21 02:57:00,
2013-05-20 19:58:00,61.9,46.5,29.91,SSW,202,0.9,2.5,57,0.00,,CLR,0.00,VWS V14.00,2013-05-21 02:58:00,
2013-05-20 20:01:00,61.7,46.8,29.91,WSW,248,0.0,2.5,58,0.00,,CLR,0.00,VWS V14.00,2013-05-21 03:01:00,
2013-05-20 20:02:00,61.7,46.8,29.91,NNW,338,2.7,2.7,58,0.00,,CLR,0.00,VWS V14.00,2013-05-21 03:02:00,
2013-05-20 20:03:00,61.3,46.5,29.91,WNW,292,0.0,2.7,58,0.00,,CLR,0.00,VWS V14.00,2013-05-21 03:03:00,
2013-05-20 20:06:00,61.3,46.5,29.91,NW,315,0.0,2.7,58,0.00,,CLR,0.00,VWS V14.00,2013-05-21 03:06:00,
2013-05-20 20:07:00,61.3,46.5,29.91,NW,315,0.0,2.7,58,0.00,,CLR,0.00,VWS V14.00,2013-05-21 03:07:00,
2013-05-20 20:08:00,61.2,46.3,29.91,WSW,248,0.0,2.7,58,0.00,,CLR,0.00,VWS V14.00,2013-05-21 03:08:00,
2013-05-20 20:09:00,61.2,46.3,29.91,WSW,248,2.7,2.7,58,0.00,,CLR,0.00,VWS V14.00,2013-05-21 03:09:00,
2013-05-20 20:11:00,60.8,46.4,29.91,WSW,248,2.9,2.9,59,0.00,,CLR,0.00,VWS V14.00,2013-05-21 03:11:00,
2013-05-20 20:12:00,60.8,46.4,29.91,WNW,292,1.3,2.9,59,0.00,,CLR,0.00,VWS V14.00,2013-05-21 03:12:00,
2013-05-20 20:13:00,60.8,46.4,29.91,WNW,292,2.2,2.9,59,0.00,,CLR,0.00,VWS V14.00,2013-05-21 03:13:00,
2013-05-20 20:14:00,60.8,46.4,29.91,SSE,158,1.1,2.9,59,0.00,,CLR,0.00,VWS V14.00,2013-05-21 03:14:00,
2013-05-20 20:16:00,60.6,46.2,29.91,West,270,0.9,2.9,59,0.00,,CLR,0.00,VWS V14.00,2013-05-21 03:16:00,
2013-05-20 20:17:00,60.6,46.7,29.91,West,270,0.9,2.9,60,0.00,,CLR,0.00,VWS V14.00,2013-05-21 03:17:00,
2013-05-20 20:18:00,60.4,46.5,29.94,WNW,292,0.0,2.9,60,0.00,,CLR,0.00,VWS V14.00,2013-05-21 03:18:00,
2013-05-20 20:19:00,60.4,46.5,29.94,WNW,292,0.0,2.9,60,0.00,,CLR,0.00,VWS V14.00,2013-05-21 03:19:00,
2013-05-20 20:21:00,60.4,46.5,29.94,WNW,292,0.0,2.9,60,0.00,,CLR,0.00,VWS V14.00,2013-05-21 03:21:00,
2013-05-20 20:22:00,60.4,46.5,29.94,SSW,202,0.0,2.9,60,0.00,,CLR,0.00,VWS V14.00,2013-05-21 03:22:00,
2013-05-20 20:23:00,60.4,46.5,29.94,WNW,292,0.0,2.9,60,0.00,,CLR,0.00,VWS V14.00,2013-05-21 03:23:00,
2013-05-20 20:24:00,60.3,46.3,29.94,SSW,202,0.0,2.9,60,0.00,,CLR,0.00,VWS V14.00,2013-05-21 03:24:00,
2013-05-20 20:26:00,60.1,46.2,29.94,SSW,202,0.0,2.9,60,0.00,,CLR,0.00,VWS V14.00,2013-05-21 03:26:00,
2013-05-20 20:27:00,60.1,46.2,29.94,SSW,202,0.0,2.9,60,0.00,,CLR,0.00,VWS V14.00,2013-05-21 03:27:00,
2013-05-20 20:28:00,60.1,46.2,29.94,West,270,0.0,2.2,60,0.00,,CLR,0.00,VWS V14.00,2013-05-21 03:28:00,
2013-05-20 20:29:00,60.1,46.2,29.94,West,270,0.0,2.2,60,0.00,,CLR,0.00,VWS V14.00,2013-05-21 03:29:00,
2013-05-20 20:31:00,59.9,46.0,29.94,West,270,2.0,2.0,60,0.00,,OVC060,0.00,VWS V14.00,2013-05-21 03:31:00,
2013-05-20 20:32:00,59.9,46.0,29.94,West,270,2.0,2.0,60,0.00,,OVC060,0.00,VWS V14.00,2013-05-21 03:32:00,
2013-05-20 20:33:00,59.9,46.0,29.91,WNW,292,0.0,2.0,60,0.00,,OVC060,0.00,VWS V14.00,2013-05-21 03:33:00,
2013-05-20 20:34:00,59.9,46.0,29.91,WNW,292,0.0,2.0,60,0.00,,OVC060,0.00,VWS V14.00,2013-05-21 03:34:00,
2013-05-20 20:36:00,59.9,46.4,29.91,WNW,292,0.0,2.0,61,0.00,,OVC060,0.00,VWS V14.00,2013-05-21 03:36:00,
2013-05-20 20:37:00,59.9,46.4,29.91,WNW,292,0.0,2.0,61,0.00,,OVC060,0.00,VWS V14.00,2013-05-21 03:37:00,
2013-05-20 20:38:00,59.7,46.3,29.91,WNW,292,0.9,2.0,61,0.00,,OVC060,0.00,VWS V14.00,2013-05-21 03:38:00,
2013-05-20 20:39:00,59.7,46.3,29.91,WNW,292,0.9,2.0,61,0.00,,OVC060,0.00,VWS V14.00,2013-05-21 03:39:00,
2013-05-20 20:41:00,59.5,46.1,29.91,West,270,0.0,2.0,61,0.00,,OVC060,0.00,VWS V14.00,2013-05-21 03:41:00,
2013-05-20 20:42:00,59.5,46.1,29.91,West,270,0.0,2.0,61,0.00,,OVC060,0.00,VWS V14.00,2013-05-21 03:42:00,
2013-05-20 20:44:00,59.4,45.9,29.91,West,270,1.3,2.7,61,0.00,,OVC060,0.00,VWS V14.00,2013-05-21 03:44:00,
2013-05-20 20:46:00,59.4,45.9,29.91,West,270,0.0,2.7,61,0.00,,OVC060,0.00,VWS V14.00,2013-05-21 03:46:00,
2013-05-20 20:47:00,59.4,45.9,29.91,West,270,0.0,2.7,61,0.00,,OVC060,0.00,VWS V14.00,2013-05-21 03:47:00,
2013-05-20 20:49:00,59.4,46.3,29.91,WNW,292,0.0,2.7,62,0.00,,OVC060,0.00,VWS V14.00,2013-05-21 03:49:00,
2013-05-20 20:51:00,59.2,46.2,29.91,NW,315,0.0,2.7,62,0.00,,OVC060,0.00,VWS V14.00,2013-05-21 03:51:00,
2013-05-20 20:52:00,59.2,46.2,29.91,NW,315,0.0,2.7,62,0.00,,OVC060,0.00,VWS V14.00,2013-05-21 03:52:00,
2013-05-20 20:54:00,59.2,46.2,29.91,NW,315,0.0,2.7,62,0.00,,OVC060,0.00,VWS V14.00,2013-05-21 03:54:00,
2013-05-20 20:57:00,59.2,46.2,29.91,SSW,202,0.0,2.7,62,0.00,,OVC060,0.00,VWS V14.00,2013-05-21 03:57:00,
2013-05-20 20:59:00,59.0,46.0,29.91,North,0,0.0,2.7,62,0.00,,OVC060,0.00,VWS V14.00,2013-05-21 03:59:00,
2013-05-20 21:01:00,58.8,46.3,29.91,WNW,292,0.0,0.0,63,0.00,,OVC060,0.00,VWS V14.00,2013-05-21 04:01:00,
2013-05-20 21:06:00,58.6,46.1,29.91,WNW,292,0.0,1.3,63,0.00,,OVC060,0.00,VWS V14.00,2013-05-21 04:06:00,
2013-05-20 21:11:00,58.5,45.9,29.91,WSW,248,0.0,2.5,63,0.00,,OVC060,0.00,VWS V14.00,2013-05-21 04:11:00,
2013-05-20 21:16:00,58.3,45.8,29.91,WSW,248,2.7,2.7,63,0.00,,OVC060,0.00,VWS V14.00,2013-05-21 04:16:00,
2013-05-20 21:21:00,58.1,45.6,29.91,ENE,68,0.0,2.7,63,0.00,,OVC060,0.00,VWS V14.00,2013-05-21 04:21:00,
2013-05-20 21:26:00,58.1,46.0,29.91,WNW,292,0.0,1.3,64,0.00,,OVC060,0.00,VWS V14.00,2013-05-21 04:26:00,
2013-05-20 21:31:00,57.7,45.7,29.91,WSW,248,0.0,1.3,64,0.00,,OVC060,0.00,VWS V14.00,2013-05-21 04:31:00,
2013-05-20 21:36:00,57.6,45.5,29.91,WSW,248,0.0,2.0,64,0.00,,OVC060,0.00,VWS V14.00,2013-05-21 04:36:00,
2013-05-20 21:37:00,57.6,45.5,29.91,ENE,68,0.0,2.0,64,0.00,,OVC060,0.00,VWS V14.00,2013-05-21 04:37:00,
2013-05-20 21:41:00,57.6,45.5,29.91,WNW,292,1.1,2.0,64,0.00,,OVC060,0.00,VWS V14.00,2013-05-21 04:41:00,
2013-05-20 21:42:00,57.4,45.3,29.91,NNW,338,1.6,2.0,64,0.00,,OVC060,0.00,VWS V14.00,2013-05-21 04:42:00,
2013-05-20 21:46:00,57.2,45.2,29.91,WNW,292,0.0,2.0,64,0.00,,OVC060,0.00,VWS V14.00,2013-05-21 04:46:00,
2013-05-20 21:47:00,57.2,45.2,29.91,WNW,292,0.0,2.0,64,0.00,,OVC060,0.00,VWS V14.00,2013-05-21 04:47:00,
2013-05-20 21:51:00,57.2,45.2,29.91,West,270,0.0,1.6,64,0.00,,OVC060,0.00,VWS V14.00,2013-05-21 04:51:00,
2013-05-20 21:52:00,57.2,45.2,29.91,WSW,248,1.3,1.6,64,0.00,,OVC060,0.00,VWS V14.00,2013-05-21 04:52:00,
2013-05-20 21:56:00,57.0,45.4,29.91,WNW,292,0.0,1.3,65,0.00,,OVC060,0.00,VWS V14.00,2013-05-21 04:56:00,
2013-05-20 21:57:00,57.0,45.4,29.91,WNW,292,0.0,1.3,65,0.00,,OVC060,0.00,VWS V14.00,2013-05-21 04:57:00,
2013-05-20 22:01:00,56.8,45.2,29.91,WSW,248,0.0,2.0,65,0.00,,OVC060,0.00,VWS V14.00,2013-05-21 05:01:00,
2013-05-20 22:02:00,56.8,45.2,29.91,WSW,248,0.0,2.0,65,0.00,,OVC060,0.00,VWS V14.00,2013-05-21 05:02:00,
2013-05-20 22:06:00,56.7,45.0,29.91,WNW,292,0.0,3.1,65,0.00,,OVC060,0.00,VWS V14.00,2013-05-21 05:06:00,
2013-05-20 22:07:00,56.7,45.0,29.91,WNW,292,0.0,3.1,65,0.00,,OVC060,0.00,VWS V14.00,2013-05-21 05:07:00,
2013-05-20 22:11:00,56.7,45.4,29.91,WNW,292,0.0,3.1,66,0.00,,OVC060,0.00,VWS V14.00,2013-05-21 05:11:00,
2013-05-20 22:12:00,56.7,45.4,29.91,WNW,292,0.0,3.1,66,0.00,,OVC060,0.00,VWS V14.00,2013-05-21 05:12:00,
2013-05-20 22:16:00,56.5,45.3,29.91,NW,315,0.0,3.1,66,0.00,,OVC060,0.00,VWS V14.00,2013-05-21 05:16:00,
2013-05-20 22:17:00,56.5,45.3,29.91,West,270,0.0,3.1,66,0.00,,OVC060,0.00,VWS V14.00,2013-05-21 05:17:00,
2013-05-20 22:21:00,56.3,45.1,29.91,NW,315,0.0,0.9,66,0.00,,OVC060,0.00,VWS V14.00,2013-05-21 05:21:00,
2013-05-20 22:22:00,56.3,45.1,29.91,NW,315,0.0,0.9,66,0.00,,OVC060,0.00,VWS V14.00,2013-05-21 05:22:00,
2013-05-20 22:26:00,56.3,45.1,29.91,WNW,292,0.0,0.9,66,0.00,,OVC060,0.00,VWS V14.00,2013-05-21 05:26:00,
2013-05-20 22:27:00,56.3,45.1,29.91,WNW,292,0.0,0.9,66,0.00,,OVC060,0.00,VWS V14.00,2013-05-21 05:27:00,
2013-05-20 22:31:00,56.1,45.3,29.91,WNW,292,0.0,0.0,67,0.00,,OVC060,0.00,VWS V14.00,2013-05-21 05:31:00,
2013-05-20 22:32:00,56.1,45.3,29.91,WNW,292,2.2,2.2,67,0.00,,OVC060,0.00,VWS V14.00,2013-05-21 05:32:00,
2013-05-20 22:36:00,55.9,45.2,29.91,WNW,292,1.1,1.1,67,0.00,,OVC060,0.00,VWS V14.00,2013-05-21 05:36:00,
2013-05-20 22:37:00,55.9,45.2,29.91,WNW,292,1.1,1.1,67,0.00,,OVC060,0.00,VWS V14.00,2013-05-21 05:37:00,
2013-05-20 22:41:00,55.6,44.8,29.91,WNW,292,0.9,2.0,67,0.00,,OVC060,0.00,VWS V14.00,2013-05-21 05:41:00,
2013-05-20 22:42:00,55.6,44.8,29.91,WNW,292,0.9,2.0,67,0.00,,OVC060,0.00,VWS V14.00,2013-05-21 05:42:00,
2013-05-20 22:47:00,55.4,45.0,29.91,NW,315,0.0,1.6,68,0.00,,OVC060,0.00,VWS V14.00,2013-05-21 05:47:00,
2013-05-20 22:48:00,55.4,45.0,29.91,WNW,292,1.6,1.6,68,0.00,,OVC060,0.00,VWS V14.00,2013-05-21 05:48:00,
2013-05-20 22:52:00,55.0,44.7,29.91,WSW,248,0.0,2.2,68,0.00,,OVC110,0.00,VWS V14.00,2013-05-21 05:52:00,
2013-05-20 22:53:00,55.0,44.7,29.91,WSW,248,1.3,2.2,68,0.00,,OVC060,0.00,VWS V14.00,2013-05-21 05:53:00,
2013-05-20 22:57:00,54.9,44.9,29.91,WNW,292,0.0,2.2,69,0.00,,OVC110,0.00,VWS V14.00,2013-05-21 05:57:00,
2013-05-20 22:58:00,54.9,44.9,29.91,West,270,0.0,2.2,69,0.00,,OVC110,0.00,VWS V14.00,2013-05-21 05:58:00,
2013-05-20 23:02:00,54.9,44.9,29.91,WSW,248,0.9,2.2,69,0.00,,OVC110,0.00,VWS V14.00,2013-05-21 06:02:00,
2013-05-20 23:03:00,54.7,44.7,29.91,WNW,292,1.6,2.2,69,0.00,,OVC110,0.00,VWS V14.00,2013-05-21 06:03:00,
2013-05-20 23:07:00,54.9,45.3,29.91,WNW,292,0.0,2.0,70,0.00,,OVC110,0.00,VWS V14.00,2013-05-21 06:07:00,
2013-05-20 23:08:00,54.9,45.3,29.91,WNW,292,0.0,2.0,70,0.00,,OVC110,0.00,VWS V14.00,2013-05-21 06:08:00,
2013-05-20 23:12:00,54.7,45.1,29.91,NNW,338,0.0,2.0,70,0.00,,OVC110,0.00,VWS V14.00,2013-05-21 06:12:00,
2013-05-20 23:13:00,54.7,45.1,29.91,NNW,338,0.0,2.0,70,0.00,,OVC110,0.00,VWS V14.00,2013-05-21 06:13:00,
2013-05-20 23:17:00,54.5,44.9,29.91,WSW,248,2.0,2.0,70,0.00,,OVC110,0.00,VWS V14.00,2013-05-21 06:17:00,
2013-05-20 23:18:00,54.5,44.9,29.91,West,270,0.9,2.0,70,0.00,,OVC110,0.00,VWS V14.00,2013-05-21 06:18:00,
2013-05-20 23:22:00,54.5,44.9,29.91,WNW,292,0.0,2.0,70,0.00,,OVC110,0.00,VWS V14.00,2013-05-21 06:22:00,
2013-05-20 23:23:00,54.5,44.9,29.91,WNW,292,0.0,2.0,70,0.00,,OVC110,0.00,VWS V14.00,2013-05-21 06:23:00,
2013-05-20 23:27:00,54.0,44.0,29.91,ESE,112,3.1,3.1,69,0.00,,OVC110,0.00,VWS V14.00,2013-05-21 06:27:00,
2013-05-20 23:28:00,54.0,44.0,29.91,West,270,1.3,3.1,69,0.00,,OVC110,0.00,VWS V14.00,2013-05-21 06:28:00,
2013-05-20 23:32:00,53.8,44.2,29.91,SSE,158,2.5,3.4,70,0.00,,OVC110,0.00,VWS V14.00,2013-05-21 06:32:00,
2013-05-20 23:33:00,53.6,44.1,29.91,WSW,248,2.2,3.4,70,0.00,,OVC033,0.00,VWS V14.00,2013-05-21 06:33:00,
2013-05-20 23:34:00,53.6,44.1,29.91,WSW,248,2.7,3.4,70,0.00,,OVC033,0.00,VWS V14.00,2013-05-21 06:34:00,
2013-05-20 23:37:00,53.4,44.3,29.91,West,270,3.1,3.4,71,0.00,,OVC033,0.00,VWS V14.00,2013-05-21 06:37:00,
2013-05-20 23:38:00,53.4,44.3,29.91,West,270,3.1,3.4,71,0.00,,OVC033,0.00,VWS V14.00,2013-05-21 06:38:00,
2013-05-20 23:39:00,53.4,44.3,29.91,West,270,3.1,3.4,71,0.00,,OVC033,0.00,VWS V14.00,2013-05-21 06:39:00,
2013-05-20 23:42:00,53.1,43.9,29.91,WSW,248,1.1,3.4,71,0.00,,OVC033,0.00,VWS V14.00,2013-05-21 06:42:00,
2013-05-20 23:43:00,53.1,43.9,29.91,West,270,2.5,3.4,71,0.00,,OVC033,0.00,VWS V14.00,2013-05-21 06:43:00,
2013-05-20 23:44:00,53.1,43.9,29.91,WSW,248,1.6,3.4,71,0.00,,OVC033,0.00,VWS V14.00,2013-05-21 06:44:00,
2013-05-20 23:47:00,53.1,44.3,29.91,WNW,292,0.0,3.1,72,0.00,,OVC033,0.00,VWS V14.00,2013-05-21 06:47:00,
2013-05-20 23:48:00,53.1,44.3,29.91,WNW,292,0.0,3.1,72,0.00,,OVC033,0.00,VWS V14.00,2013-05-21 06:48:00,
2013-05-20 23:49:00,53.1,44.3,29.91,SSE,158,0.0,3.1,72,0.00,,OVC033,0.00,VWS V14.00,2013-05-21 06:49:00,
2013-05-20 23:52:00,52.9,44.1,29.91,West,270,0.0,3.1,72,0.00,,OVC033,0.00,VWS V14.00,2013-05-21 06:52:00,
2013-05-20 23:53:00,52.9,44.1,29.91,West,270,0.0,3.1,72,0.00,,OVC033,0.00,VWS V14.00,2013-05-21 06:53:00,
2013-05-20 23:54:00,52.9,44.1,29.91,SW,225,0.0,3.1,72,0.00,,OVC033,0.00,VWS V14.00,2013-05-21 06:54:00,
2013-05-20 23:57:00,52.9,44.5,29.91,West,270,0.0,2.7,73,0.00,,OVC033,0.00,VWS V14.00,2013-05-21 06:57:00,
2013-05-20 23:58:00,52.9,44.5,29.91,West,270,0.0,2.7,73,0.00,,OVC033,0.00,VWS V14.00,2013-05-21 06:58:00,
2013-05-20 23:59:00,52.9,44.5,29.91,WSW,248,0.0,2.7,73,0.00,,OVC033,0.00,VWS V14.00,2013-05-21 06:59:00,